GFSFLT1_prec_cloud_006.txt.gz
Cloud_Cover
22 5 0 0 0 0 0 0 0 0 0 0 0 0 0 0 0 0 0 0 0 2 1 0 0 1 0 75 73 5 4 0 18
3 5 0 0 0 0 0 0 0 0 0 0 0 0 0 0 0 0 0 0 0 4 2 4 5 9 99 37 100 98 19 28 2
0 0 0 0 0 0 0 0 0 0 0 0 0 0 0 0 0 0 0 0 8 25 40 35 74 81 70 91 64 100 50 46 96
3 1 0 0 0 0 0 0 0 0 0 0 0 0 0 0 0 2 15 34 100 48 45 15 96 92 20 99 70 86 5 84 97
1 0 0 2 0 0 0 0 0 0 0 0 0 0 0 0 0 0 0 69 12 41 6 29 91 100 100 100 100 80 100 98 100
0 0 0 0 0 0 0 0 0 0 0 0 0 0 0 0 0 0 4 6 14 44 44 53 87 100 100 100 100 100 22 66 100
0 0 0 0 2 0 0 0 0 0 0 0 0 0 0 0 1 0 5 5 10 53 18 2 79 100 100 100 100 100 66 100 100
0 0 0 1 5 0 0 0 0 0 0 0 0 0 0 0 9 25 61 43 23 7 38 52 77 100 100 100 100 100 100 100 100
0 0 0 9 100 6 0 0 0 0 0 0 0 0 0 0 31 66 36 49 36 5 67 5 99 100 100 100 100 100 100 100 100
0 0 0 0 95 6 0 0 0 0 0 0 0 0 0 0 17 31 80 100 93 94 44 5 5 86 98 100 100 100 100 100 100
1 0 0 0 5 1 0 0 0 0 0 0 0 0 0 0 10 37 79 100 98 100 51 14 17 0 1 10 8 100 29 30 84
1 0 0 2 0 0 0 0 0 0 0 0 0 0 0 86 5 43 99 100 86 97 95 95 49 15 20 85 91 68 80 91 28
4 2 0 0 0 0 0 0 0 0 0 0 0 0 0 21 8 56 100 100 91 100 100 82 72 39 83 13 12 24 90 59 98
33 0 0 0 0 0 4 0 0 0 3 0 4 0 0 8 24 56 92 100 100 100 100 100 91 74 69 26 78 100 72 19 81
89 7 12 3 0 2 0 0 0 29 28 52 6 5 9 85 92 100 92 85 85 100 100 100 100 3 94 49 95 80 46 97 100
82 5 5 18 5 5 5 40 83 100 99 69 12 57 100 99 100 100 100 100 100 100 100 98 47 51 99 100 37 36 100 100 100
68 76 100 100 74 51 62 14 20 100 9 11 1 26 61 66 92 98 100 100 96 89 100 64 36 76 57 100 100 100 100 52 100
76 32 77 98 100 87 16 19 100 80 86 90 36 51 67 100 100 100 94 100 100 100 83 60 37 39 84 100 100 100 25 65 60
97 72 47 100 99 29 100 98 100 100 100 73 99 98 73 24 13 26 85 41 20 84 34 100 100 100 49 66 47 94 100 93 80
100 94 48 100 100 100 100 100 100 50 99 100 72 5 5 3 1 0 1 12 4 5 32 13 52 10 92 100 91 7 14 97 100

GFSFLT1_prec_cloud_009.txt.gz
Cloud_Cover
69 6 0 2 0 0 0 0 0 0 0 0 0 0 0 0 0 0 0 0 0 0 0 3 0 0 3 100 98 32 5 5 99
47 5 0 2 0 0 0 0 0 0 0 0 0 0 0 0 0 0 0 0 0 0 0 0 0 2 2 4 50 95 90 8 92
5 5 0 5 0 0 0 0 0 0 0 0 0 0 0 0 0 0 0 0 0 0 0 2 4 4 78 90 22 74 52 86 71
25 5 0 0 0 0 0 0 0 0 0 0 0 0 0 0 0 0 0 0 0 0 0 0 0 33 29 64 49 100 100 49 30
67 98 1 0 3 0 0 0 0 0 0 0 0 0 0 0 0 0 0 0 0 0 0 0 0 5 8 56 70 94 69 54 36
0 94 100 2 0 0 0 0 0 0 0 0 0 0 0 0 0 0 0 0 0 0 0 0 5 10 5 62 72 100 100 100 100
1 65 1 0 0 0 0 0 0 0 0 0 0 0 0 0 0 0 0 0 0 0 0 4 5 4 5 86 100 100 100 100 100
0 0 0 0 0 0 0 0 0 0 0 0 0 0 0 0 0 0 0 0 0 0 0 2 0 5 66 100 100 100 100 99 72
0 0 2 0 0 0 0 1 0 0 0 0 0 0 0 0 0 0 0 0 0 6 9 61 5 5 100 100 83 86 99 100 94
0 0 0 0 0 0 0 5 5 0 0 0 0 0 0 0 0 0 0 0 5 23 34 55 11 49 5 89 61 21 53 100 82
0 0 0 0 0 0 0 5 4 5 0 0 0 0 0 0 0 0 0 18 39 71 100 100 99 100 25 20 2 7 29 90 9
6 0 3 0 0 0 0 1 5 1 0 0 0 0 0 0 0 8 20 56 93 100 93 100 96 63 28 13 91 35 8 72 1
100 15 0 0 0 0 0 0 0 0 0 0 0 0 0 0 0 6 11 38 100 98 100 100 100 100 91 100 95 41 5 5 92
99 10 6 5 5 5 5 2 0 0 0 0 0 0 2 4 5 37 100 100 87 100 100 100 100 100 99 98 74 17 7 95 73
5 5 5 5 5 5 5 5 5 0 0 0 0 8 95 48 58 99 100 96 88 67 78 100 100 95 90 79 13 41 24 69 98
0 1 5 5 5 5 5 5 5 3 5 5 5 38 100 100 100 100 100 100 72 87 100 100 62 73 94 67 1 40 98 99 98
0 5 32 0 4 5 5 5 5 8 23 9 48 54 96 100 100 100 97 98 100 98 87 71 88 28 34 33 33 57 4 49 87
52 38 76 17 15 42 71 5 5 5 7 32 81 99 100 100 100 99 93 94 59 50 99 43 15 96 42 85 8 5 85 80 100
77 100 100 78 77 68 66 8 74 100 75 7 42 97 100 100 77 94 64 98 100 97 75 96 75 10 41 11 39 1 23 5 10
95 100 99 94 100 100 100 100 100 100 100 100 99 88 100 100 100 35 41 83 81 14 33 4 0 0 0 0 5 0 0 0 0

GFSFLT1_prec_cloud_012.txt.gz
Cloud_Cover
78 0 0 0 0 0 0 0 0 0 0 0 0 0 0 0 0 0 0 0 0 0 0 0 0 0 2 5 38 11 76 99 80
100 96 1 0 0 0 0 0 0 0 0 0 0 0 0 0 0 0 0 0 0 0 0 0 0 1 5 5 74 99 100 44 7
94 48 0 5 0 0 0 0 0 0 0 0 0 0 0 0 0 0 0 0 0 0 0 0 0 2 1 5 6 65 11 48 5
93 22 0 1 0 0 0 0 0 0 0 0 0 0 0 0 0 0 0 0 0 0 0 0 0 0 0 2 4 6 25 8 5
0 0 8 97 2 0 0 0 0 0 0 0 0 0 0 0 0 0 0 0 0 0 0 0 0 0 0 2 5 5 6 7 5
7 4 5 62 5 0 0 0 0 0 0 0 0 0 0 0 0 0 0 0 0 0 0 0 0 0 0 1 4 87 55 100 93
87 14 0 12 10 32 0 0 0 0 0 0 0 0 0 0 0 0 0 0 0 0 0 0 0 0 3 5 10 16 68 66 72
71 94 0 3 5 1 0 0 0 0 0 0 0 0 0 0 0 0 0 0 0 0 0 0 0 1 5 62 5 13 5 3 38
73 7 1 0 5 5 0 0 0 0 0 0 0 0 0 0 0 0 0 0 0 0 0 0 5 8 39 15 41 5 5 5 2
76 97 17 0 0 0 0 0 0 0 0 0 0 0 0 0 0 0 0 0 0 0 0 0 15 11 45 71 54 20 5 0 3
100 48 5 1 0 0 0 0 0 0 1 4 2 0 0 0 0 0 0 0 0 0 0 11 44 72 100 100 87 100 56 10 58
7 3 100 64 1 0 4 0 0 0 0 5 3 0 0 0 0 1 1 0 0 1 39 73 100 100 100 100 100 100 68 90 92
46 99 100 80 2 0 4 5 0 0 0 3 0 0 0 5 1 5 5 0 1 15 100 100 100 100 100 100 95 84 69 49 94
34 100 99 0 56 0 5 0 0 0 0 0 5 5 5 5 5 5 3 3 4 100 100 90 68 100 100 51 46 98 55 37 11
4 22 100 59 56 5 2 0 0 0 0 0 5 5 5 5 5 5 8 42 99 99 95 98 100 100 90 100 100 68 27 8 15
18 65 14 4 0 2 5 5 0 0 0 0 0 1 5 5 5 46 100 78 96 100 100 100 100 86 2 11 32 73 76 45 21
6 100 99 7 0 0 2 5 25 81 54 30 13 5 7 85 98 96 97 100 100 100 100 100 100 68 10 5 10 45 0 3 36
0 40 2 0 0 0 0 0 2 4 11 29 29 32 96 100 99 100 100 100 99 100 100 100 89 41 11 5 5 5 1 0 0
0 0 0 0 7 19 19 73 76 13 5 100 81 71 63 100 100 100 100 95 90 89 82 31 31 9 5 17 40 3 0 0 0
100 85 66 100 70 100 100 99 100 100 100 100 100 100 100 100 77 88 99 100 100 90 38 99 54 18 5 3 0 0 0 0 0

GFSFLT1_prec_cloud_015.txt.gz
Cloud_Cover
82 100 99 5 4 0 0 0 0 0 0 0 0 0 0 0 0 0 0 0 0 0 0 0 0 0 0 0 11 5 9 5 5
66 100 100 86 5 0 0 0 0 0 0 0 0 0 0 0 0 0 0 0 0 0 0 0 0 0 0 0 0 1 1 5 5
5 87 100 45 5 0 0 0 0 0 0 0 0 0 0 0 0 0 0 0 0 0 0 0 0 0 0 0 4 5 5 5 5
5 22 87 0 0 0 0 0 0 0 0 0 0 0 0 0 0 0 0 0 0 0 0 0 0 0 0 0 0 0 22 5 5
43 8 41 16 3 0 0 0 0 0 0 0 0 0 0 0 0 0 0 0 0 0 0 0 0 0 0 0 0 5 6 4 6
100 100 22 5 4 2 0 0 0 0 0 0 0 0 0 0 0 0 0 0 0 0 0 0 0 0 0 0 5 5 5 5 2
96 100 100 80 2 5 0 1 0 0 0 0 0 0 0 0 0 0 0 0 0 0 0 0 0 0 0 3 5 5 53 62 22
100 77 100 72 2 5 4 0 0 0 0 0 0 0 0 0 0 0 0 0 0 0 0 0 0 0 0 0 5 5 5 39 73
45 96 76 95 64 5 3 0 0 0 0 0 0 0 0 0 0 0 0 0 0 0 0 0 5 5 3 0 5 5 46 34 97
28 4 98 78 100 7 4 1 1 0 0 0 0 0 0 0 0 0 0 0 0 0 0 0 5 5 3 4 11 29 50 87 89
33 53 5 49 100 100 5 2 2 0 0 0 0 0 0 0 0 0 0 0 0 0 5 5 5 2 42 35 100 100 100 100 100
2 0 4 89 45 98 100 55 1 0 5 5 2 4 4 3 0 1 0 5 5 5 5 5 14 85 99 100 100 100 100 100 100
0 0 0 0 97 100 100 36 3 0 0 0 0 0 0 5 5 5 5 0 5 4 0 76 100 100 100 100 100 100 100 97 100
0 0 0 3 5 19 74 75 7 5 2 0 0 0 10 7 5 2 0 0 0 10 73 91 98 100 100 100 100 82 5 45 94
0 0 0 0 71 51 5 1 0 4 8 0 0 0 18 8 3 3 13 5 21 72 35 49 100 100 100 100 51 49 43 65 71
0 0 0 0 3 89 78 4 0 0 0 11 5 0 13 100 7 2 1 7 11 76 10 37 60 88 100 37 8 30 45 20 1
0 0 0 0 0 0 79 90 61 5 3 0 2 65 6 96 93 53 5 5 5 5 12 32 98 94 26 16 13 35 71 95 100
0 0 0 0 0 0 7 100 100 100 79 36 69 85 98 100 100 85 80 93 81 12 46 99 16 38 24 32 44 26 23 25 33
68 100 100 100 42 83 14 16 77 89 100 6 92 99 100 100 100 100 93 39 92 98 59 27 21 95 100 100 75 33 5 12 6
100 100 100 100 100 100 100 64 5 21 6 3 100 100 100 100 100 100 88 100 100 48 75 80 5 100 13 4 71 38 2 5 3

GFSFLT1_prec_cloud_018.txt.gz
Cloud_Cover
12 4 90 60 42 2 2 0 0 0 0 0 0 0 0 0 0 0 0 0 0 0 0 0 0 0 0 0 0 0 0 0 0
21 71 79 100 90 100 11 0 0 0 0 0 0 0 0 0 0 0 0 0 0 0 0 0 0 0 0 0 0 0 4 4 0
0 4 45 29 100 100 70 10 0 0 0 0 0 0 0 0 0 0 0 0 0 0 0 0 0 0 0 0 0 0 2 5 4
5 0 0 21 80 88 100 100 0 0 0 0 0 0 0 0 0 0 0 0 0 0 0 0 0 0 0 0 0 1 5 5 4
11 5 5 6 30 94 100 94 1 0 0 0 0 0 0 0 0 0 0 0 0 0 0 0 0 0 0 0 5 5 3 0 5
61 86 100 96 98 13 31 4 0 0 0 0 0 0 0 0 0 0 0 0 0 0 0 0 0 0 0 1 2 5 5 0 4
11 77 97 99 100 45 23 6 3 4 2 0 0 0 0 0 0 0 0 0 0 0 0 0 0 0 0 2 5 5 5 4 5
43 95 93 70 100 63 32 5 3 4 3 0 0 0 0 0 0 0 0 0 0 0 0 0 0 0 4 0 3 5 5 5 100
0 5 88 30 89 81 5 5 0 0 0 0 0 0 0 0 0 0 0 0 0 0 0 0 0 0 5 5 5 0 60 100 100
0 0 5 1 5 2 0 0 0 0 0 0 0 0 0 0 0 0 0 0 0 7 0 0 0 0 0 0 5 96 100 52 91
0 5 2 10 2 59 52 5 5 4 5 2 0 0 0 0 0 0 0 0 0 11 29 0 1 0 0 2 98 100 100 100 100
0 3 0 0 3 0 0 4 3 30 2 5 1 0 0 0 0 0 0 0 6 6 19 34 2 0 14 60 100 81 100 100 100
1 0 0 0 0 0 0 3 4 46 70 76 5 5 4 1 0 0 12 9 0 0 1 0 2 67 40 92 100 100 100 100 100
2 0 0 0 0 0 0 1 4 2 6 39 10 5 6 5 4 0 35 100 6 0 8 34 82 85 92 100 100 100 100 96 70
12 0 0 0 0 0 0 0 0 0 0 2 70 23 69 2 0 0 38 99 98 31 39 57 85 79 100 100 100 100 51 3 5
6 5 0 0 0 0 0 3 0 0 0 0 12 100 100 98 98 97 10 100 77 83 57 70 95 100 100 100 100 16 55 7 25
0 4 0 0 0 0 0 0 2 83 75 5 23 85 14 36 82 81 100 55 57 83 85 84 100 94 91 80 48 40 100 100 98
0 0 0 0 65 89 26 51 58 92 99 96 100 93 72 100 100 100 100 100 100 83 100 100 100 100 100 100 47 34 55 100 100
0 0 0 2 85 100 100 100 100 100 100 100 100 100 100 100 100 100 100 100 100 100 100 100 100 100 91 82 79 100 100 100 100
42 48 36 100 100 100 100 100 100 100 100 100 100 100 100 100 100 87 100 100 100 100 100 100 100 94 27 18 91 98 98 100 100

GFSFLT1_prec_cloud_021.txt.gz
Cloud_Cover
5 97 4 5 7 3 2 0 0 0 0 0 0 0 0 0 0 0 0 0 0 0 0 0 0 0 0 0 0 0 0 0 0
99 96 74 5 5 6 98 18 72 0 0 0 0 0 0 0 0 0 0 0 0 0 0 0 0 0 0 0 0 0 0 5 5
22 4 5 27 5 21 52 79 7 4 2 0 0 0 0 0 0 0 0 0 0 0 0 0 0 0 0 0 0 0 0 1 5
0 1 0 7 5 7 22 84 83 95 95 79 0 0 0 0 0 0 0 0 0 0 0 0 0 0 0 0 0 0 0 0 0
0 0 2 3 94 100 31 46 86 99 100 100 1 0 0 0 0 0 0 0 0 0 0 0 0 0 0 0 0 0 0 0 0
0 0 0 0 41 5 42 5 10 97 71 15 48 1 0 0 0 0 0 0 0 0 0 0 0 0 0 0 0 0 0 0 0
0 0 0 0 0 72 69 4 5 5 94 100 100 51 0 0 0 0 0 0 0 0 0 0 0 0 0 0 0 0 0 0 0
0 0 2 4 0 17 11 4 5 50 4 50 84 48 0 0 0 0 0 0 0 0 0 0 0 0 0 0 0 0 0 0 0
0 0 0 0 4 1 0 37 36 75 35 5 5 4 0 0 0 0 0 0 0 0 0 0 0 0 0 0 0 0 0 0 2
0 0 0 0 0 4 0 22 99 93 92 58 5 0 0 0 0 0 0 0 0 0 0 0 3 0 0 0 0 0 5 27 95
0 0 0 0 0 0 3 2 0 100 100 62 50 1 4 3 0 0 0 0 13 20 8 13 32 1 0 0 0 0 4 50 100
0 0 0 0 0 0 0 0 0 73 100 93 67 16 0 0 0 14 0 0 13 53 91 26 42 33 0 0 0 19 37 94 100
0 0 0 0 0 0 0 0 0 0 0 0 0 94 100 25 86 92 6 0 5 45 94 89 67 36 17 12 7 62 84 100 100
1 0 0 0 0 0 0 0 5 5 4 2 3 5 85 100 100 58 42 4 20 47 99 100 100 98 95 38 25 59 95 100 100
1 0 4 0 0 0 0 0 0 23 4 4 88 96 84 100 66 100 100 79 43 92 100 100 100 100 100 92 63 49 88 100 100
5 5 17 42 22 0 0 0 0 0 4 3 5 48 64 14 12 100 100 69 60 100 95 100 100 100 100 100 100 100 100 100 100
5 5 0 0 1 10 16 17 12 0 0 0 0 5 1 1 24 91 100 100 100 100 100 100 100 100 100 100 100 100 100 100 100
5 4 0 2 51 0 0 0 0 0 7 0 3 5 20 94 100 100 100 100 100 100 100 100 100 100 100 100 100 100 100 100 100
65 39 6 63 3 3 4 1 0 0 0 62 3 84 98 100 97 100 100 100 100 100 100 100 100 100 100 100 100 100 100 100 100
80 90 5 5 0 0 4 1 97 97 3 28 49 100 100 100 100 100 100 100 100 100 100 100 100 100 100 100 100 100 100 100 100

GFSFLT1_prec_cloud_024.txt.gz
Cloud_Cover
48 5 4 0 5 5 0 1 3 0 0 2 0 0 0 0 0 0 0 0 0 0 0 0 0 0 0 0 0 0 0 0 0
5 5 0 2 5 5 5 5 5 2 0 0 0 0 0 0 0 0 0 0 0 0 0 0 0 0 0 0 0 0 0 0 0
4 6 58 72 2 2 3 48 20 0 0 5 0 0 0 0 0 0 0 0 0 0 0 0 0 0 0 0 0 0 0 0 0
31 5 5 100 59 26 4 4 4 6 36 28 4 0 5 31 0 0 0 0 0 0 0 0 0 0 0 0 0 0 0 0 0
25 89 1 2 4 48 26 1 5 1 11 71 22 42 77 100 99 0 0 0 0 0 0 0 0 0 0 0 0 0 0 0 0
3 2 1 5 0 5 5 4 4 5 3 7 6 5 13 99 100 5 0 0 0 0 0 0 0 0 0 0 0 0 0 0 0
3 3 0 0 0 0 1 2 0 2 5 0 0 39 36 48 100 92 5 4 0 0 0 0 0 0 0 0 0 0 0 0 0
0 1 5 3 0 0 0 0 0 0 0 0 0 0 16 83 50 95 100 61 3 0 0 0 0 0 0 0 0 0 0 0 0
0 0 0 4 22 5 1 0 4 4 5 6 6 4 2 3 0 0 0 2 0 0 0 0 0 0 0 0 0 0 0 0 2
0 0 0 0 0 2 5 5 5 5 55 77 92 63 18 5 4 0 0 0 0 0 0 0 0 0 0 0 0 0 0 0 6
0 0 0 0 0 0 0 0 1 2 0 1 100 100 100 82 90 69 0 5 0 0 0 0 0 1 0 0 0 0 0 5 7
0 0 0 0 0 0 0 0 0 0 0 0 15 97 48 67 100 99 5 5 3 0 0 0 0 2 18 0 0 6 2 2 5
0 0 0 0 0 0 0 0 0 0 0 0 0 0 12 100 100 100 76 70 73 97 88 60 48 54 13 2 5 57 11 7 16
0 0 0 2 0 0 0 0 0 0 0 0 0 5 4 79 100 52 72 100 100 86 100 100 90 91 99 99 66 74 73 100 100
11 58 39 3 4 0 0 0 0 0 0 3 99 84 48 6 2 12 18 7 16 99 93 98 92 100 100 100 82 80 99 100 100
5 2 18 30 5 1 5 2 0 2 4 5 5 44 14 5 61 77 100 89 24 92 84 87 100 100 100 100 100 100 100 100 100
5 5 5 5 5 10 4 3 0 0 5 5 5 34 51 16 2 91 61 39 98 100 100 91 98 100 100 100 100 100 100 100 100
73 22 5 5 5 4 1 0 0 0 0 13 2 0 3 10 33 22 15 84 100 100 99 100 100 100 100 100 100 100 100 100 100
24 4 1 0 13 0 15 1 0 0 0 1 87 8 0 0 0 0 96 100 100 100 100 100 100 100 100 100 100 100 100 100 100
100 100 98 56 17 32 7 1 0 0 8 1 73 40 0 10 36 100 100 100 100 100 100 100 100 100 100 100 100 100 100 100 100

GFSFLT1_prec_cloud_027.txt.gz
Cloud_Cover
4 0 0 0 0 0 0 0 0 0 0 0 0 0 0 0 0 0 0 0 0 0 0 0 0 0 0 0 0 0 0 0 0
0 0 0 0 0 0 0 0 0 0 0 0 0 0 0 0 0 0 0 0 0 0 0 0 0 0 0 0 0 0 0 0 0
1 0 0 0 0 0 0 0 4 0 0 0 0 0 0 0 0 0 0 0 0 0 0 0 0 0 0 0 0 0 0 0 0
12 6 1 6 20 75 46 37 5 5 0 0 0 0 0 0 2 0 0 2 0 0 0 0 0 0 0 0 0 0 0 0 0
7 5 56 97 93 97 94 93 19 5 2 2 5 5 5 7 20 6 73 94 80 0 0 0 0 0 0 0 0 0 0 0 0
3 8 17 5 23 5 100 98 25 4 4 1 0 1 0 1 4 29 74 92 85 5 5 2 0 0 0 0 0 0 0 0 0
0 5 5 4 5 5 9 68 5 4 4 0 0 0 5 9 0 0 6 69 100 94 65 23 3 0 0 0 0 0 0 0 0
0 0 4 5 5 2 0 2 4 0 0 0 0 0 0 0 0 0 0 0 5 13 5 1 0 0 0 0 0 0 0 0 0
0 0 0 0 0 0 2 4 0 0 0 2 3 0 5 1 0 0 0 0 0 0 0 0 0 0 0 0 0 0 0 0 0
0 0 0 0 0 0 0 3 5 2 0 45 52 5 5 4 5 3 3 0 0 0 0 0 0 0 0 0 0 0 0 0 0
0 0 0 0 0 0 0 0 0 0 3 3 5 90 5 9 84 100 56 23 2 0 5 5 0 0 0 0 0 0 0 0 0
0 0 0 0 0 0 0 0 0 0 0 1 1 0 5 36 85 13 5 5 5 5 13 6 0 0 0 0 0 0 0 0 0
3 2 0 0 0 0 0 0 0 0 0 0 0 0 0 13 100 5 5 9 65 17 16 14 93 17 4 1 0 30 0 16 93
0 0 0 0 0 0 0 0 0 0 0 0 0 0 0 0 1 1 17 74 98 100 74 100 100 32 3 32 98 54 67 75 100
0 0 0 0 0 0 0 0 0 0 0 0 0 0 0 0 0 0 1 2 56 57 100 98 100 100 98 64 100 100 99 100 100
0 0 0 0 0 0 0 3 1 2 5 4 0 0 0 0 0 0 0 0 0 21 89 99 100 100 100 100 100 100 100 100 100
0 0 0 3 3 3 1 0 1 5 5 5 4 0 0 2 1 5 5 4 48 20 34 92 100 100 100 100 100 100 100 100 100
0 0 0 0 1 2 5 4 0 0 2 5 5 0 0 0 0 2 5 0 7 11 1 38 67 9 62 100 100 100 100 100 100
0 0 0 0 0 0 0 0 0 0 0 0 0 0 0 0 3 0 0 14 93 100 90 100 100 94 100 100 100 100 100 100 100
100 90 11 0 16 17 15 2 6 24 52 37 18 6 1 0 18 0 8 100 100 100 100 100 100 100 100 100 100 100 100 100 100

GFSFLT1_prec_cloud_030.txt.gz
Cloud_Cover
1 2 0 0 0 0 0 0 0 0 0 0 0 0 0 0 0 0 0 0 0 0 0 0 0 0 0 0 0 0 1 7 0
0 0 0 0 0 0 0 0 0 0 0 0 0 0 0 0 0 0 0 0 0 0 0 0 0 0 0 0 0 0 0 0 0
0 0 0 0 0 0 0 0 0 0 0 0 0 0 0 0 0 0 0 0 0 0 0 0 0 0 0 0 0 0 0 0 0
0 0 0 0 0 0 0 0 0 0 0 0 0 0 0 0 0 0 0 0 0 5 76 87 0 0 0 0 0 0 0 0 0
0 0 4 4 0 0 0 0 0 0 5 0 0 0 0 0 0 0 0 5 5 30 100 99 13 0 4 5 5 5 2 0 0
0 0 0 0 0 0 3 5 3 1 3 0 0 0 0 3 0 0 0 0 0 48 5 4 5 5 5 5 5 4 0 0 0
0 0 0 4 0 4 5 5 49 13 5 4 0 0 0 2 26 5 0 0 0 0 2 5 4 14 5 4 0 0 0 0 0
0 0 0 1 5 5 5 5 12 62 93 23 8 2 0 0 0 0 0 0 0 0 0 0 0 0 0 0 0 0 0 0 0
0 0 0 2 5 27 66 5 5 5 5 88 13 4 4 2 5 5 0 0 0 0 0 0 0 0 0 0 0 0 0 0 0
0 0 0 0 0 0 3 4 1 0 0 0 0 0 1 5 3 5 8 2 0 0 0 0 0 0 0 0 0 0 0 0 0
0 0 0 0 0 0 0 0 0 0 0 0 0 0 9 54 28 4 47 99 62 8 9 0 5 24 5 0 0 0 0 0 0
0 0 0 0 0 0 0 0 0 0 0 0 0 0 5 5 5 0 0 6 100 5 5 4 2 6 22 5 1 2 4 3 6
0 0 0 0 0 0 0 0 0 0 0 0 0 0 0 2 0 5 0 4 5 5 0 2 1 0 4 98 100 100 100 5 1
1 5 0 0 0 0 0 0 0 0 0 0 0 0 0 0 0 0 0 1 5 5 5 5 5 2 100 100 100 77 99 64 57
0 5 5 0 0 0 0 0 0 0 0 0 0 0 0 0 0 0 0 0 0 0 0 0 0 64 35 98 31 86 73 98 65
0 0 0 0 0 0 0 0 0 0 0 0 0 0 0 0 0 0 0 0 0 0 0 0 0 0 9 4 0 41 99 100 64
0 0 0 0 0 0 0 0 0 0 0 0 0 0 0 0 0 0 0 0 2 0 0 0 0 0 0 0 0 0 62 100 100
0 5 0 0 0 0 0 0 0 0 3 2 0 0 0 0 0 0 0 0 0 0 2 1 3 2 1 3 0 23 24 100 98
26 1 0 0 0 0 0 0 0 0 0 0 0 0 0 0 0 0 0 0 0 87 62 93 100 92 54 0 11 94 100 100 100
98 34 2 3 16 14 2 0 0 10 7 0 0 0 0 0 18 0 0 0 0 0 36 100 100 100 100 100 100 100 100 100 100

GFSFLT1_prec_cloud_033.txt.gz
Cloud_Cover
5 0 0 0 0 0 0 0 0 0 0 0 0 5 0 0 0 0 0 0 0 0 0 0 1 0 0 0 0 0 0 0 4
5 5 0 0 0 0 0 0 0 0 0 0 1 5 1 0 0 0 0 0 0 0 0 0 0 0 0 0 0 0 0 0 0
0 3 0 0 0 0 0 0 0 0 0 0 5 5 0 0 0 0 0 0 0 0 0 0 0 43 0 0 0 0 0 2 3
0 0 0 0 0 0 0 0 0 0 0 0 0 0 0 0 0 0 0 0 0 0 0 0 90 100 85 9 0 0 0 4 2
0 0 0 0 0 0 0 0 0 0 0 0 0 0 0 0 0 0 0 0 0 0 4 99 100 8 0 2 77 95 38 5 0
0 0 0 0 0 0 0 0 0 0 0 0 0 0 0 0 0 3 0 0 0 0 1 0 0 0 0 0 3 16 4 0 0
0 0 0 1 2 2 0 0 0 0 0 0 0 0 0 0 0 0 0 0 0 0 0 0 0 0 0 0 0 0 0 0 0
0 0 0 0 0 0 0 0 0 0 0 0 0 0 0 0 0 0 0 0 0 0 0 0 0 0 0 0 0 0 0 0 0
0 0 0 0 0 0 0 0 1 5 5 69 99 14 1 0 0 0 5 3 0 0 0 0 0 0 0 0 0 0 0 0 0
0 0 0 0 0 0 0 3 5 5 2 4 4 5 97 92 32 8 5 38 5 5 2 0 0 0 0 0 0 4 5 2 2
0 0 0 0 0 0 0 0 0 0 0 1 0 3 1 1 31 29 2 5 2 5 5 4 0 0 0 0 0 0 0 2 55
0 0 0 0 0 0 0 0 0 0 0 0 5 1 0 0 0 2 5 4 0 5 5 5 5 1 0 0 0 0 6 43 22
0 0 0 0 0 0 0 0 0 0 0 0 4 5 2 0 0 0 0 3 0 0 0 3 5 2 0 0 0 0 0 48 100
0 0 0 0 0 0 0 0 0 0 0 0 4 2 2 0 0 0 0 0 0 0 0 0 0 0 0 0 0 0 49 74 24
0 0 0 0 0 0 0 0 0 0 0 0 0 0 0 0 0 0 0 0 0 0 0 0 0 0 0 0 0 0 10 6 62
0 0 0 4 0 0 0 0 0 0 0 0 0 0 0 0 0 0 0 0 0 0 0 0 0 0 0 0 0 0 34 26 5
0 0 0 0 2 0 0 0 0 0 0 0 0 0 0 0 0 0 0 0 0 0 0 0 0 0 0 0 0 0 0 1 12
0 0 9 0 0 0 0 2 5 4 0 0 0 0 0 0 0 0 0 0 0 0 0 0 0 0 0 0 0 0 0 0 0
47 2 6 18 15 4 2 1 3 3 0 24 7 0 0 0 0 0 0 0 0 38 15 26 100 99 56 3 56 23 63 100 93
61 22 100 100 97 73 79 79 2 0 0 0 0 0 0 0 0 0 0 0 0 0 33 100 100 100 100 100 97 100 100 100 100

GFSFLT1_prec_cloud_036.txt.gz
Cloud_Cover
29 5 5 1 0 0 0 0 0 0 0 0 0 0 0 0 0 0 0 0 0 0 0 0 0 0 0 0 0 0 0 0 0
54 5 42 10 0 0 0 0 0 0 0 0 0 0 5 1 0 0 0 0 0 0 0 0 0 0 0 0 0 0 0 0 0
77 5 5 5 0 0 0 0 0 0 0 0 0 0 3 5 3 0 0 0 0 0 0 0 0 0 100 80 3 4 1 2 4
5 6 5 5 0 0 0 0 0 0 0 0 0 0 0 5 5 0 0 0 0 0 0 0 0 12 98 17 0 0 5 26 4
2 11 88 5 2 0 0 0 0 0 0 0 0 0 5 5 1 0 0 0 0 0 0 0 0 17 87 2 0 0 0 0 5
0 2 5 5 2 0 0 0 0 0 0 0 0 0 4 2 0 0 0 0 0 0 0 0 4 5 5 1 0 0 0 0 0
0 0 3 1 1 0 0 0 0 0 0 0 0 0 0 0 0 0 0 0 0 0 0 0 0 0 0 0 0 0 0 0 0
0 0 2 65 4 1 0 0 0 0 0 0 0 0 0 0 0 0 0 0 0 0 0 0 0 0 0 0 0 0 0 0 0
0 0 0 2 0 34 77 1 0 0 0 0 0 0 0 0 0 0 0 0 0 0 0 0 0 0 0 0 0 0 0 3 1
0 0 0 0 0 1 0 0 0 0 0 0 0 0 0 0 1 0 0 0 0 4 0 0 2 5 0 0 0 0 0 0 0
0 0 0 0 0 0 0 0 0 0 0 0 0 0 0 5 2 5 5 14 46 5 8 5 2 1 5 5 0 0 0 0 0
0 0 0 0 0 0 0 0 1 2 0 0 0 1 2 5 1 0 0 1 1 4 3 1 1 2 4 5 4 1 0 0 0
0 0 0 0 0 0 0 0 0 0 0 0 0 0 2 5 5 0 0 0 0 0 10 3 0 0 1 0 2 5 5 5 5
0 0 0 0 0 0 0 0 0 5 5 5 4 5 5 5 30 33 5 0 0 0 0 1 7 3 0 0 0 0 0 0 0
0 0 0 0 0 0 0 0 0 0 1 4 4 2 2 5 5 5 5 4 0 0 0 1 0 2 0 0 0 8 7 14 50
0 0 0 0 0 0 0 0 0 0 0 0 0 0 0 0 0 0 0 0 0 0 0 0 0 2 8 8 1 7 28 32 35
0 0 8 29 0 0 0 0 0 0 0 0 0 0 0 0 0 0 0 0 0 0 0 1 0 28 26 1 2 1 0 2 17
59 0 22 0 0 2 0 0 0 0 0 0 0 0 0 0 0 0 0 0 0 5 0 0 8 5 0 0 2 28 49 32 12
34 0 0 0 1 19 4 0 0 0 0 0 0 0 0 0 0 0 0 0 0 6 54 93 100 100 80 55 79 100 100 100 44
100 28 20 9 64 100 100 97 11 0 0 0 0 0 0 0 0 18 0 0 0 0 64 100 100 100 100 100 97 100 100 100 100

GFSFLT1_prec_cloud_039.txt.gz
Cloud_Cover
5 3 4 0 0 0 0 0 0 0 0 0 0 0 0 0 0 0 0 0 0 0 0 0 0 0 0 0 0 0 0 0 5
21 5 1 0 0 0 0 0 0 0 0 0 0 0 0 0 0 0 0 0 0 0 0 0 0 0 0 2 0 0 0 0 0
5 4 0 0 0 0 0 0 0 0 0 0 0 0 0 0 0 0 0 0 0 0 0 0 0 0 0 100 99 3 0 0 0
1 5 1 0 0 0 5 0 0 0 0 0 0 0 0 0 0 0 0 0 0 0 0 0 0 0 0 88 54 2 0 0 0
1 1 4 0 0 0 5 0 0 0 0 0 0 0 0 0 0 0 0 0 0 0 0 0 0 0 0 0 5 0 0 0 0
0 0 5 1 0 0 0 0 0 0 0 0 0 0 0 0 0 8 0 0 0 0 0 0 0 0 0 0 0 0 0 0 0
0 2 48 12 0 0 0 0 0 0 0 0 0 0 0 0 0 0 4 1 0 0 0 0 0 0 0 0 0 0 0 0 0
0 0 12 5 0 0 0 0 0 0 0 0 0 0 0 0 0 5 4 0 0 0 0 0 0 0 0 0 0 0 0 0 0
0 0 0 5 5 0 0 0 0 0 0 0 0 0 0 0 0 0 0 0 0 0 0 0 0 0 0 0 0 2 0 0 0
0 0 0 1 5 0 0 0 0 0 0 0 0 0 0 0 0 0 0 0 0 0 0 0 0 0 0 0 4 3 0 0 0
0 0 0 0 0 0 2 26 2 0 0 0 0 0 0 0 0 0 0 0 0 0 0 0 0 0 2 5 5 1 0 0 0
0 0 0 0 0 0 0 4 81 100 5 4 0 0 0 0 5 5 5 5 4 5 5 5 5 5 2 1 4 5 5 4 4
0 0 0 0 0 0 0 0 0 4 6 6 1 5 8 34 17 5 5 2 3 0 0 1 5 5 3 0 0 0 0 10 5
0 0 0 0 0 0 0 0 0 0 0 2 3 0 5 15 5 5 5 4 4 2 2 0 0 0 1 5 0 0 22 6 0
0 0 0 0 0 0 0 0 0 0 0 0 0 4 5 4 4 5 4 5 5 5 5 4 1 4 10 1 0 41 42 50 66
0 0 0 0 0 0 0 0 0 0 0 0 0 0 0 5 5 1 2 5 5 5 5 5 5 12 17 29 22 13 74 70 57
0 0 0 0 0 0 0 0 0 0 0 0 0 0 0 0 0 0 0 0 2 1 0 0 6 11 0 0 3 0 24 11 35
10 7 0 0 0 0 0 0 0 0 0 0 0 0 0 0 0 2 0 0 0 0 0 0 0 8 9 6 6 20 60 53 52
4 11 0 0 0 0 0 5 0 0 0 0 0 0 0 0 0 0 0 0 6 99 79 98 100 92 76 94 99 100 100 100 100
6 47 71 1 0 0 98 100 68 0 0 0 0 0 0 0 0 0 0 0 0 20 100 100 100 75 83 79 100 100 100 100 100

GFSFLT1_prec_cloud_042.txt.gz
Cloud_Cover
5 3 8 5 36 2 0 0 0 0 0 0 0 0 0 0 0 0 0 0 0 0 0 0 0 0 0 0 0 0 0 0 0
4 5 5 0 5 0 0 0 0 0 0 0 0 0 0 0 0 0 0 0 0 0 0 0 0 0 0 0 0 0 0 0 0
0 0 5 2 0 0 0 0 0 0 0 0 0 0 0 0 0 0 0 0 0 0 0 0 0 0 0 0 4 22 3 5 0
0 0 0 0 0 5 5 0 0 0 0 0 0 0 0 0 0 0 0 0 0 0 0 0 0 0 0 0 0 70 5 0 0
0 0 0 0 5 44 5 0 0 0 0 0 0 0 0 0 0 0 0 0 0 0 0 0 0 0 0 0 0 0 1 0 0
0 0 0 0 3 5 5 0 0 0 0 0 0 0 0 0 0 0 0 0 0 0 0 0 0 0 0 0 0 0 0 0 0
0 0 0 0 0 3 0 0 0 0 0 0 0 0 0 0 0 0 0 0 0 1 5 0 0 0 0 0 0 0 0 0 0
0 0 0 0 0 2 4 1 5 0 0 0 0 0 0 0 0 0 0 0 0 0 5 2 0 0 0 0 0 0 0 0 0
0 0 0 0 0 2 5 1 5 0 0 0 0 0 0 0 0 0 0 0 0 1 5 4 0 0 0 0 0 0 0 0 4
0 0 0 0 0 0 0 0 0 1 0 0 0 0 0 0 0 0 0 0 2 5 5 0 0 0 0 0 0 0 0 3 5
0 0 0 0 0 0 0 4 3 5 2 0 0 0 0 0 0 0 0 0 0 1 0 1 0 0 0 0 0 1 7 21 0
0 0 0 0 0 0 0 0 0 0 0 1 0 0 0 1 5 5 4 5 5 2 0 0 0 0 4 9 19 34 5 0 0
0 0 0 0 0 0 0 0 0 2 1 5 5 4 2 1 40 93 18 37 5 4 0 0 0 5 5 5 5 0 0 16 0
0 0 0 0 0 0 0 0 4 52 80 100 99 88 13 5 5 100 100 100 41 2 4 0 3 5 0 0 0 3 22 16 0
0 0 0 0 0 0 0 0 0 0 0 67 81 8 88 99 100 100 92 100 100 84 5 54 26 4 1 0 0 49 62 36 62
4 0 0 0 0 0 0 0 0 0 7 0 10 11 9 7 84 84 87 78 11 5 5 16 5 5 14 5 4 1 84 86 40
0 4 0 0 0 0 0 0 0 0 0 0 0 0 0 0 0 0 2 4 3 2 3 2 0 32 14 5 3 0 21 51 88
4 0 0 0 0 0 0 0 0 0 0 0 0 0 0 0 0 12 0 42 36 2 0 1 2 1 0 3 11 37 79 52 30
5 16 0 0 0 0 0 0 0 0 0 0 0 0 0 3 2 17 9 39 100 98 82 70 98 96 52 23 79 100 100 100 100
57 5 98 0 0 0 0 0 0 0 0 0 0 0 0 0 30 14 14 6 21 87 66 96 51 8 86 51 14 48 100 100 100

GFSFLT1_prec_cloud_045.txt.gz
Cloud_Cover
0 32 74 14 100 74 0 1 4 0 0 0 0 0 0 0 0 0 0 0 0 0 0 0 0 0 0 0 0 0 0 0 0
0 4 94 100 89 47 0 0 0 0 0 0 0 0 0 0 0 0 0 0 0 0 0 0 0 0 0 0 0 0 0 0 0
0 0 36 100 96 51 25 0 0 0 0 0 0 0 0 0 0 0 0 0 0 0 0 0 0 0 0 0 0 0 5 4 0
0 0 5 55 36 91 22 1 0 0 0 0 0 0 0 0 0 0 0 0 0 0 0 0 0 0 0 0 0 0 0 1 4
0 0 5 5 5 51 66 0 0 0 0 0 0 0 0 0 0 0 0 0 0 0 0 0 0 0 0 0 0 0 0 0 0
0 0 0 72 46 4 6 16 0 0 0 0 0 0 0 0 0 0 0 0 0 0 0 0 0 0 0 0 0 0 0 0 0
0 0 0 2 2 2 6 54 3 0 0 0 0 0 0 0 0 0 0 0 0 0 0 0 0 2 0 0 0 0 0 0 0
0 0 0 0 0 0 6 63 4 0 0 0 0 0 0 0 0 0 0 0 0 0 0 0 4 5 5 0 0 0 0 0 0
0 0 0 0 0 0 0 5 4 0 0 0 0 0 0 0 0 0 0 0 0 0 0 0 0 0 1 0 0 0 0 0 0
0 0 0 0 0 0 0 1 4 0 0 0 0 0 0 0 0 0 0 0 0 0 0 0 0 0 4 1 0 0 0 0 0
0 0 0 0 0 0 0 1 4 3 4 0 0 0 0 0 0 0 0 0 8 23 0 0 0 0 2 1 0 0 0 0 45
13 0 0 0 0 0 0 0 0 5 4 0 0 0 0 0 3 5 0 0 0 0 19 15 0 2 5 0 0 0 55 40 3
0 0 0 0 0 0 0 1 0 3 2 0 0 1 2 0 8 5 4 4 5 5 0 4 0 8 1 0 0 9 26 20 3
28 2 8 0 0 0 0 0 0 4 5 5 42 6 0 1 72 88 99 30 38 5 0 0 0 5 2 0 5 46 70 10 0
5 5 0 2 4 2 0 0 0 0 19 5 5 12 0 5 4 63 47 22 14 8 5 1 5 1 5 3 5 23 62 18 62
2 7 5 0 0 1 0 0 0 0 5 5 5 5 3 11 2 3 84 93 94 5 5 17 7 12 100 100 93 6 77 54 30
3 5 5 5 0 2 18 0 0 0 3 4 16 54 92 100 100 96 69 58 34 100 94 77 98 93 54 25 51 9 17 71 69
93 5 5 5 5 2 2 1 0 0 0 0 1 0 0 1 40 96 100 100 100 98 74 40 5 5 8 5 21 14 59 46 47
12 33 5 5 5 38 5 1 0 0 0 0 0 0 0 4 1 18 38 100 100 100 99 96 100 98 58 99 85 100 100 100 100
18 78 1 62 5 6 39 5 0 0 0 0 0 0 0 0 32 32 77 89 100 21 38 60 93 87 52 28 98 100 100 100 100

GFSFLT1_prec_cloud_048.txt.gz
Cloud_Cover
5 5 5 5 83 99 4 0 0 0 1 2 0 0 0 0 0 0 0 0 0 0 0 0 0 0 0 0 0 0 0 0 0
0 0 5 46 28 69 74 0 0 0 0 1 0 0 0 0 0 0 0 0 0 0 0 0 0 0 0 0 0 0 0 0 0
1 0 3 8 68 70 74 2 0 0 0 0 0 0 0 0 0 0 0 0 0 0 0 0 0 0 0 0 0 0 0 0 4
0 0 4 5 5 42 92 30 0 0 0 0 0 0 0 0 0 0 0 0 0 0 0 0 0 0 0 0 0 0 0 0 0
3 2 4 83 40 16 6 5 1 0 0 4 0 0 0 0 0 0 0 0 0 0 0 0 0 0 0 0 0 0 0 0 0
5 4 5 91 95 5 5 40 3 0 0 0 0 0 0 0 0 0 0 0 0 0 0 0 0 0 0 0 0 0 1 0 0
4 0 5 7 8 5 5 1 4 0 0 0 0 0 0 0 0 0 0 0 0 0 0 0 0 0 0 0 0 5 5 5 0
0 0 0 0 3 98 5 5 5 5 2 0 0 0 0 0 0 0 0 0 0 0 0 0 0 0 0 0 2 5 7 5 5
0 0 0 0 0 24 16 38 8 5 2 0 0 0 0 0 0 0 0 0 0 0 0 0 0 0 0 0 0 5 0 5 0
48 21 0 0 0 0 5 37 5 5 0 0 0 0 0 0 0 0 0 0 0 0 0 0 0 0 0 0 0 0 1 0 0
62 99 6 0 0 0 0 5 3 5 0 0 0 0 0 0 0 0 0 0 0 0 0 0 0 0 0 0 0 0 0 5 0
100 100 74 0 0 0 3 4 4 0 0 0 0 0 0 0 0 0 0 0 0 0 0 0 0 0 0 0 0 0 0 6 0
100 100 100 6 0 0 7 75 5 0 0 0 0 0 0 0 0 0 0 0 0 0 13 1 0 3 5 1 0 6 5 25 0
97 97 98 19 8 14 35 11 5 4 4 0 0 0 0 0 0 4 5 3 4 0 2 22 43 30 4 5 5 3 4 30 4
82 79 65 98 100 75 6 0 4 0 2 2 2 5 3 0 0 5 85 86 5 5 5 14 20 28 40 29 14 34 41 10 64
91 100 97 35 75 7 5 0 1 5 3 3 5 50 60 50 1 2 5 58 5 6 23 5 24 38 37 22 6 22 73 60 24
90 67 100 60 13 34 14 5 73 41 5 3 19 70 100 100 100 2 2 85 9 39 54 40 7 45 8 5 98 100 92 76 85
30 60 100 27 9 33 37 5 5 100 98 98 98 81 47 90 96 28 0 58 71 76 99 70 31 36 16 28 63 33 60 43 29
6 45 42 96 85 33 23 5 5 2 10 3 5 5 5 7 14 15 29 62 69 99 98 100 100 99 55 80 79 100 100 100 100
62 94 53 87 100 99 40 5 5 5 5 4 0 5 5 11 19 46 100 100 100 97 99 100 100 100 100 100 100 100 100 100 100

GFSFLT1_prec_cloud_051.txt.gz
Cloud_Cover
4 0 5 5 5 5 0 0 0 0 0 0 0 0 0 0 0 0 0 0 0 0 0 0 0 0 0 0 0 0 0 0 0
5 13 5 3 5 5 1 0 0 0 0 0 0 0 0 0 0 0 0 0 0 0 0 0 0 0 0 0 0 0 0 0 0
5 78 86 4 5 5 5 0 0 0 0 0 0 0 0 0 0 0 0 0 0 0 0 0 0 0 0 0 0 0 0 0 0
5 9 100 5 5 5 17 11 0 0 0 0 0 0 0 0 0 0 0 0 0 0 0 0 0 0 0 0 0 0 0 0 0
5 36 100 22 5 5 5 19 0 0 0 0 0 0 0 0 0 0 0 0 0 0 0 0 0 0 0 0 0 0 0 0 0
5 21 93 73 91 25 5 4 4 0 0 0 0 0 0 0 0 0 0 0 0 0 0 0 0 0 0 0 2 2 1 0 0
5 5 5 58 78 68 5 5 4 0 0 0 0 0 0 0 0 0 0 0 0 0 0 0 0 0 0 0 5 5 4 4 20
2 5 5 5 5 5 5 4 5 0 0 0 0 0 0 0 0 0 0 0 0 0 0 0 0 0 0 0 0 0 4 5 29
0 4 5 5 0 5 5 24 71 0 4 0 0 0 0 0 0 0 0 0 0 0 0 0 0 0 0 0 0 5 5 5 5
0 0 0 3 0 5 6 8 14 28 18 4 0 0 0 0 0 0 0 0 0 0 0 0 0 0 0 0 0 0 0 5 5
16 18 1 0 0 1 20 48 5 3 53 5 0 0 0 0 0 0 0 0 0 0 0 0 0 0 0 0 0 0 0 1 0
100 100 100 72 0 0 0 5 5 95 95 5 0 0 0 0 0 0 0 0 0 0 0 0 0 5 5 4 3 5 4 6 0
100 100 100 36 0 0 0 0 2 77 74 2 0 0 0 0 0 0 0 0 0 0 0 0 0 0 0 3 2 8 0 39 2
100 100 100 25 0 0 0 0 0 5 5 5 1 0 0 0 0 0 0 0 0 0 1 0 3 0 0 0 0 0 31 26 5
100 100 100 56 0 0 0 3 29 100 89 39 0 0 0 0 0 0 0 0 0 0 5 20 20 24 14 4 21 28 66 40 75
100 100 97 100 32 0 0 6 96 57 100 74 1 0 0 0 0 0 0 2 8 15 16 0 9 2 0 0 5 11 71 64 33
100 100 100 98 98 76 100 70 84 84 75 5 5 5 5 0 0 0 0 0 5 5 5 5 5 5 5 5 5 5 4 3 35
100 100 100 100 100 86 84 86 82 34 49 49 6 4 56 5 5 3 4 2 4 5 4 21 68 88 5 5 26 78 5 15 6
91 100 100 100 100 100 100 96 40 9 67 34 7 9 18 31 99 98 100 100 74 98 90 100 100 99 55 5 79 95 100 100 100
92 61 99 93 95 29 45 20 2 4 10 65 100 68 5 74 100 100 100 100 100 67 47 100 100 100 100 100 96 100 100 100 100

GFSFLT1_prec_cloud_054.txt.gz
Cloud_Cover
5 5 10 5 0 0 0 0 0 0 0 0 0 0 0 0 0 0 0 0 0 0 0 0 0 0 0 0 0 0 0 0 0
5 5 5 5 3 0 0 0 0 0 0 0 0 0 0 0 0 0 0 0 0 0 0 0 0 0 0 0 0 0 0 0 9
5 5 5 5 5 4 4 0 0 0 0 0 0 0 0 0 0 0 0 0 0 0 0 0 0 0 0 0 0 0 0 0 1
5 1 5 5 5 5 5 0 0 0 0 0 0 0 0 0 0 0 0 0 0 0 0 0 0 0 0 0 0 0 0 0 0
8 0 4 82 54 40 49 4 1 0 0 0 0 0 0 0 0 0 0 0 0 0 0 0 0 0 0 0 0 0 0 0 0
0 0 8 50 22 5 5 5 5 0 0 0 0 0 0 0 0 0 0 0 0 0 0 0 0 0 0 0 0 0 0 0 0
0 0 5 5 5 5 5 5 6 1 0 0 0 0 0 0 0 0 0 0 0 0 0 0 0 0 0 0 0 0 0 0 0
0 0 5 5 5 5 5 5 22 5 0 0 0 0 0 0 0 0 0 0 0 0 0 0 0 0 0 0 0 0 0 0 0
0 0 5 27 5 5 5 5 5 5 5 0 0 0 0 0 0 0 0 0 0 0 0 0 0 0 0 0 0 0 0 0 0
0 0 1 53 0 5 5 18 20 1 2 2 0 0 0 0 0 0 0 0 0 0 0 0 0 0 0 0 0 0 0 0 0
0 0 0 47 5 0 5 5 84 5 8 3 4 4 0 0 0 0 0 0 0 0 0 0 0 0 0 0 0 0 0 0 0
0 0 0 5 2 0 0 5 46 31 76 54 22 4 0 0 0 0 0 0 0 0 0 0 0 0 0 0 0 0 0 5 0
23 44 42 12 0 0 0 1 22 68 66 12 5 1 1 0 0 0 0 0 0 0 0 0 0 0 0 0 0 0 0 41 0
93 82 100 6 0 0 0 0 0 56 14 5 49 91 5 0 0 0 0 0 0 0 0 0 0 0 0 0 0 0 0 47 0
100 100 100 35 0 0 0 0 0 5 5 3 100 97 4 0 0 0 0 0 0 7 1 0 0 0 0 0 0 13 58 23 75
100 100 100 100 83 13 0 0 0 0 0 36 8 5 0 0 0 0 0 0 11 2 17 0 0 0 0 0 0 0 56 67 25
100 100 100 100 100 100 97 100 85 69 37 10 5 5 6 3 13 12 0 3 0 0 0 0 0 0 0 0 0 0 0 1 8
100 100 100 100 100 100 100 100 100 100 100 37 31 18 18 30 8 21 26 9 21 9 5 20 3 5 2 0 0 4 5 5 5
100 100 100 100 100 100 100 100 100 99 100 100 98 28 31 2 0 61 25 65 21 88 76 100 100 100 55 5 52 81 31 77 100
100 100 100 100 100 100 100 100 100 99 96 100 78 100 95 39 26 68 60 28 35 0 86 100 100 100 100 100 99 100 100 100 100

GFSFLT1_prec_cloud_057.txt.gz
Cloud_Cover
0 0 0 0 0 0 0 0 0 0 0 0 0 0 0 0 0 0 0 0 0 0 0 0 43 0 0 0 16 3 4 0 0
92 8 0 0 0 0 0 0 0 0 0 0 0 0 0 0 0 0 0 0 0 0 0 0 0 0 0 0 0 0 0 1 0
3 100 6 0 0 0 0 0 0 0 0 0 0 0 0 0 0 0 0 0 0 0 0 0 30 0 0 0 0 0 0 7 0
7 90 23 0 2 0 0 1 0 0 0 0 0 0 0 0 0 0 0 0 0 0 0 0 0 0 0 0 0 0 0 0 32
5 4 57 5 5 2 5 5 4 0 0 0 0 0 0 0 0 0 0 0 0 0 0 0 0 0 0 0 0 0 0 0 0
4 8 92 33 9 3 2 4 0 0 0 0 0 0 0 0 0 0 0 0 0 0 0 0 0 0 0 0 0 0 0 0 0
4 3 91 100 91 6 2 0 4 5 3 0 0 0 0 0 0 0 0 0 0 0 0 0 0 0 0 0 0 0 0 0 0
7 95 92 100 100 56 5 0 0 5 53 3 0 0 0 0 0 0 0 0 0 0 0 0 0 0 0 0 0 0 0 0 0
39 0 5 17 36 5 5 5 3 5 5 0 0 0 0 0 0 0 0 0 0 0 0 0 0 0 0 0 0 0 0 0 0
74 1 2 0 0 0 4 5 5 1 2 5 5 1 0 0 0 0 0 0 0 0 0 0 0 0 0 0 0 0 0 0 0
0 0 0 0 0 0 1 5 0 0 4 5 5 3 0 0 0 0 0 0 0 0 0 0 0 0 0 0 0 0 0 0 0
0 0 0 0 0 0 1 5 1 4 0 0 5 5 0 0 0 0 0 0 0 0 0 0 0 0 0 0 0 0 0 0 0
0 0 0 0 0 0 5 5 3 5 5 0 0 0 5 5 0 0 0 0 0 0 0 0 0 0 0 0 0 1 0 0 0
1 39 47 23 0 0 5 5 1 2 5 5 4 5 36 5 0 1 0 0 0 0 0 0 0 0 0 0 0 0 0 0 0
97 47 55 19 28 0 0 0 0 1 5 95 80 5 5 5 3 4 1 0 0 0 0 0 0 0 0 0 0 1 25 0 5
100 100 100 100 99 19 2 0 0 2 5 88 14 4 5 5 5 5 4 0 0 0 0 0 0 0 0 0 0 0 17 7 1
88 100 100 100 100 100 96 45 9 0 0 0 5 5 5 5 3 5 0 2 26 5 0 0 0 0 0 0 0 0 0 1 3
95 100 100 100 100 100 100 98 44 6 73 66 9 0 2 5 4 51 9 0 0 0 0 13 0 0 0 0 0 0 0 0 0
100 100 100 100 100 100 100 100 99 92 100 100 100 99 95 66 18 50 33 2 0 78 67 100 100 82 54 38 83 71 5 95 61
100 100 100 100 100 100 100 100 100 100 100 94 100 100 100 99 72 85 34 5 12 0 44 100 100 100 100 100 97 100 100 100 100

GFSFLT1_prec_cloud_060.txt.gz
Cloud_Cover
100 2 0 0 0 0 0 0 0 0 0 0 0 0 0 0 0 0 0 0 0 98 0 31 0 2 0 0 0 0 0 0 0
82 60 32 46 0 0 0 0 0 0 0 0 0 0 0 0 0 0 0 0 0 0 0 43 31 0 0 0 0 0 0 0 0
80 100 100 100 4 0 0 0 0 0 0 0 0 0 0 0 0 0 0 0 0 0 0 1 18 5 0 0 0 0 0 0 0
100 100 100 100 100 9 0 0 0 0 0 0 0 0 0 0 0 0 0 0 0 0 0 0 7 2 0 0 0 0 0 0 3
100 100 100 100 100 100 4 0 0 0 0 0 0 0 0 0 0 0 0 0 0 0 0 0 0 0 0 0 0 0 0 0 0
27 16 79 100 100 100 100 23 0 0 0 0 0 0 0 0 0 0 0 0 0 0 0 0 0 0 0 0 0 0 0 0 0
12 100 98 100 100 100 100 21 0 0 0 0 0 0 0 0 0 0 0 0 0 0 0 0 0 0 0 0 0 0 0 0 0
0 13 15 41 100 99 100 0 0 0 0 0 0 0 0 0 0 0 0 0 0 0 0 0 0 0 0 0 0 0 0 0 0
14 85 71 63 100 82 92 100 4 5 0 0 0 0 0 0 0 0 0 0 0 0 0 0 0 0 0 0 0 0 0 0 0
70 81 97 92 71 97 99 31 100 100 10 3 0 0 0 0 0 0 0 0 0 0 0 0 0 0 0 0 0 0 0 0 0
52 5 19 12 16 19 100 100 100 100 100 5 2 0 0 0 0 0 0 0 0 0 0 0 0 0 0 0 0 0 0 0 0
100 94 75 18 5 20 18 59 100 100 100 0 0 0 0 0 0 0 0 0 0 0 0 0 0 0 0 0 0 0 0 0 0
40 51 46 60 11 5 5 31 4 50 1 0 0 0 0 0 0 0 0 0 0 0 0 0 0 0 0 0 0 0 0 0 0
12 6 98 86 6 2 0 0 0 0 0 0 0 5 5 0 0 0 0 0 0 0 0 0 0 0 0 0 0 0 0 0 0
99 67 53 100 100 91 82 10 38 0 0 0 0 5 5 2 0 2 16 0 0 0 0 0 0 0 0 0 0 0 30 0 0
78 99 100 100 100 100 72 33 35 0 0 3 5 2 5 5 4 5 5 0 0 5 0 0 0 0 0 0 0 0 2 3 0
93 100 100 100 100 93 96 100 100 58 5 1 1 4 5 5 5 2 5 1 0 0 0 0 1 2 0 0 0 0 0 3 1
74 100 100 100 100 99 100 100 100 86 39 10 5 0 3 5 5 5 0 1 6 1 0 0 0 0 0 0 0 0 0 0 0
88 100 100 100 100 83 100 100 100 90 36 43 15 0 2 5 5 5 4 0 84 92 61 47 13 56 0 13 79 100 82 72 0
100 100 100 100 100 100 100 100 100 100 88 77 73 30 54 4 25 5 5 5 36 75 67 100 100 100 100 73 97 100 100 100 100

GFSFLT1_prec_cloud_063.txt.gz
Cloud_Cover
100 100 100 2 0 0 0 0 0 0 0 0 0 0 0 0 0 0 0 0 0 0 4 0 0 0 0 0 0 0 0 0 0
85 97 98 50 44 4 0 0 0 0 0 0 0 0 0 0 0 0 0 0 0 0 11 0 0 0 0 0 0 0 0 0 0
24 96 100 100 53 56 0 0 0 0 0 0 0 0 0 0 0 0 0 0 0 0 0 0 0 0 0 0 0 0 0 0 0
100 78 100 100 100 100 16 0 0 0 0 0 0 0 0 0 0 0 0 0 0 0 0 0 0 0 0 0 0 0 0 0 0
94 87 100 100 100 100 45 14 0 0 0 0 0 0 0 0 0 0 0 0 0 0 0 0 0 0 0 0 0 0 0 0 0
99 91 100 100 100 100 100 100 4 54 5 0 0 0 0 0 0 0 0 0 0 0 0 0 0 0 0 0 0 0 0 0 0
53 80 100 100 100 100 100 100 100 18 67 1 0 0 0 0 0 0 0 0 0 0 0 0 0 0 0 0 0 0 0 0 0
100 99 13 74 100 100 100 100 45 5 74 5 0 0 0 0 0 0 0 0 0 0 0 0 0 0 0 0 0 0 0 0 0
36 50 5 100 100 100 99 83 100 100 100 100 11 0 0 0 0 0 0 0 0 0 0 0 0 0 0 0 0 0 0 0 0
100 23 89 100 100 92 100 100 100 100 100 99 99 5 5 0 0 0 0 0 0 0 0 0 0 0 0 0 0 0 0 0 0
33 16 1 57 74 100 100 100 100 100 100 100 21 23 15 49 0 0 0 0 0 0 0 0 0 0 0 0 0 0 0 0 0
6 5 2 2 38 97 100 100 100 100 100 100 100 100 100 100 24 0 0 0 0 0 0 0 0 0 0 0 0 0 0 0 0
94 42 0 2 0 17 86 96 52 38 36 100 100 100 100 90 12 2 0 0 0 0 0 0 0 0 0 0 0 0 0 0 0
100 100 100 70 62 5 99 100 100 38 8 100 100 100 100 100 45 5 5 0 0 0 0 0 0 0 0 0 0 0 0 0 0
92 100 100 100 100 81 47 100 100 100 100 100 100 100 100 100 37 5 3 0 0 0 0 0 0 0 4 0 0 0 22 0 12
100 100 100 100 100 100 36 90 100 100 76 100 100 93 100 99 7 66 58 0 3 5 0 0 0 0 2 3 0 0 12 25 0
66 100 76 100 100 100 95 100 100 100 96 72 100 100 44 99 62 9 95 5 1 0 0 0 0 4 19 17 4 1 0 14 19
10 90 100 99 52 100 89 100 100 100 86 97 100 96 20 1 0 5 5 5 5 4 5 0 0 0 0 19 13 0 0 0 0
29 81 97 98 100 23 67 83 100 100 100 92 100 100 96 0 0 4 5 5 19 94 78 25 2 0 0 0 63 0 0 22 20
99 100 100 58 100 100 100 98 100 100 100 99 72 100 92 71 24 0 5 5 5 0 69 100 100 92 10 8 95 100 99 83 52

GFSFLT1_prec_cloud_066.txt.gz
Cloud_Cover
100 100 64 100 5 2 2 3 0 0 0 0 0 0 0 0 0 0 0 0 0 0 3 0 0 0 0 0 0 0 0 0 0
100 100 100 46 45 4 4 1 0 0 0 0 0 0 0 0 0 0 0 0 0 0 0 0 0 0 0 0 0 0 0 0 0
80 54 100 87 52 1 5 0 0 0 0 0 0 0 0 0 0 0 0 0 0 0 0 0 0 0 0 0 0 0 0 0 0
1 2 86 100 89 5 14 13 4 0 0 0 0 0 0 0 0 0 0 0 0 0 0 0 0 0 0 0 0 0 0 0 0
0 0 1 59 10 82 81 87 36 0 0 0 0 0 0 0 0 0 0 0 0 0 0 0 0 0 0 0 0 0 0 0 0
0 0 23 30 63 90 100 13 8 4 0 0 0 0 0 0 0 0 0 0 0 0 0 0 0 0 0 0 0 0 0 0 0
0 0 6 9 100 100 90 96 61 3 0 0 0 2 0 0 0 0 0 0 0 0 0 0 0 0 0 0 0 0 0 0 0
0 4 2 13 100 100 100 100 100 46 66 0 2 58 0 0 0 0 0 0 0 0 0 0 0 0 0 0 0 0 0 0 0
24 24 67 57 100 100 100 76 93 100 100 53 6 5 6 6 0 0 0 0 0 0 0 0 0 0 0 0 0 0 0 0 0
23 47 62 65 100 100 100 76 100 100 100 95 99 100 100 100 12 0 0 0 0 0 0 0 0 0 0 0 0 0 0 0 0
90 84 23 100 100 100 100 100 100 100 100 100 100 100 100 100 45 3 0 0 0 0 0 0 0 0 0 0 0 0 0 0 0
100 100 48 45 100 100 100 100 100 100 100 100 100 100 100 100 100 5 0 4 64 0 0 0 0 0 0 0 0 0 0 0 0
80 100 75 13 58 100 100 100 100 100 100 100 100 100 100 100 100 97 45 44 100 100 0 0 0 0 0 0 0 0 0 6 0
59 100 100 78 100 100 100 100 100 100 100 100 100 100 100 100 100 100 100 100 88 100 54 0 0 0 0 0 0 0 0 7 0
0 100 100 100 99 89 100 100 100 100 100 100 100 100 100 100 100 100 100 100 100 91 87 0 0 0 0 0 0 0 8 16 47
0 1 100 99 61 94 84 100 100 100 100 100 100 100 100 100 100 100 100 100 100 87 20 1 0 0 0 0 10 0 35 31 23
0 0 6 100 100 100 76 100 77 100 100 100 100 100 100 100 100 100 100 100 94 5 29 5 1 0 0 0 0 0 0 0 37
0 0 0 8 75 97 95 94 96 100 100 100 100 100 100 100 100 100 100 100 100 98 100 55 4 0 0 2 4 0 0 0 0
6 0 17 66 82 100 27 100 100 100 100 100 100 100 100 100 100 100 100 100 100 100 100 100 12 0 0 0 0 4 0 17 96
5 22 29 76 100 100 98 27 57 100 99 100 100 100 100 100 100 100 100 100 100 100 100 100 100 95 23 9 4 100 81 40 100

GFSFLT1_prec_cloud_069.txt.gz
Cloud_Cover
74 86 95 47 62 90 93 5 4 0 2 0 0 0 0 0 0 0 0 0 0 0 0 2 0 0 0 0 0 0 0 0 0
3 4 4 93 0 54 5 48 0 0 0 0 0 0 0 0 0 0 0 0 0 0 0 18 0 0 0 0 0 0 0 0 0
0 0 6 57 3 2 0 10 10 1 1 0 0 0 0 0 0 0 0 0 0 0 0 0 0 0 0 0 0 0 0 0 0
0 0 0 26 8 3 0 5 5 4 0 0 0 0 0 0 0 0 0 0 0 0 0 0 0 0 0 0 0 0 0 0 0
0 0 0 1 94 8 14 79 40 4 5 0 0 0 0 0 0 0 0 0 0 0 0 0 0 0 0 0 0 0 0 0 0
0 0 0 2 0 64 100 100 100 65 94 5 0 0 0 0 0 0 0 0 0 0 0 0 0 0 0 0 0 0 0 0 0
63 11 1 1 54 72 100 100 100 100 58 6 0 0 0 0 0 0 0 0 0 0 0 0 0 0 0 0 0 0 0 0 0
97 58 33 56 42 8 37 100 100 100 100 32 5 0 0 0 0 0 0 0 0 0 0 0 0 0 0 0 0 0 0 0 0
29 97 100 92 92 18 24 100 100 100 92 80 12 5 0 0 0 0 0 0 0 0 0 0 0 0 0 0 0 0 0 0 0
10 30 12 95 100 99 100 99 100 100 100 100 100 12 3 0 5 20 50 47 0 0 0 0 0 0 0 0 0 0 0 0 0
0 15 23 17 84 100 98 76 100 100 100 100 100 68 10 4 5 71 20 50 90 0 0 0 0 0 0 0 0 0 0 0 0
0 0 5 39 6 70 70 64 100 96 100 100 76 8 74 86 94 5 5 5 6 13 0 0 0 0 0 0 0 0 0 0 0
0 0 0 99 22 65 29 85 94 100 71 100 99 100 100 100 100 100 52 100 100 82 43 38 9 0 0 0 0 0 4 15 0
0 0 2 35 100 76 78 67 21 100 98 100 98 100 100 96 100 100 100 100 99 100 66 43 70 78 1 0 0 0 0 7 0
0 0 0 51 72 99 56 100 96 100 100 100 100 100 100 100 100 100 100 100 100 96 96 85 5 76 60 0 0 0 6 2 38
0 0 0 0 87 86 94 65 100 99 100 100 100 100 100 100 100 100 100 100 99 85 81 100 64 43 64 5 0 0 8 8 23
79 0 0 0 10 60 99 24 91 99 100 100 100 100 91 100 100 100 100 100 100 100 100 100 16 88 33 80 2 0 0 6 40
83 7 0 0 35 90 78 61 10 98 100 100 100 92 100 100 100 100 100 90 88 98 100 100 100 100 100 100 35 1 0 0 0
4 5 3 0 8 99 100 95 12 59 100 100 100 100 100 100 100 100 100 100 100 99 100 100 100 100 100 100 93 5 10 60 89
99 99 44 32 2 98 100 100 3 5 25 100 100 100 100 100 100 100 100 100 100 100 100 100 100 92 100 100 100 94 88 100 100

GFSFLT1_prec_cloud_072.txt.gz
Cloud_Cover
38 9 5 1 5 5 20 62 90 100 5 0 0 0 0 0 0 0 0 0 0 0 0 0 0 0 0 0 0 0 0 0 0
85 6 5 5 5 26 97 5 9 35 5 0 1 0 0 0 0 0 0 0 0 0 0 0 98 0 0 0 2 0 0 0 0
92 42 6 5 5 4 5 3 9 42 99 5 0 0 0 0 0 0 0 0 0 0 0 0 0 0 0 0 0 0 0 0 0
78 9 93 5 52 72 35 4 1 12 22 80 21 62 4 0 0 0 0 0 0 0 0 0 0 0 0 0 0 0 0 0 0
100 34 5 5 2 4 80 35 15 0 18 63 14 100 98 35 0 0 0 0 0 0 0 0 0 0 0 0 0 0 0 0 0
100 99 42 21 4 49 91 99 100 86 40 16 48 7 100 100 26 0 0 0 0 0 0 0 0 0 0 0 0 0 0 0 0
100 100 94 69 37 34 74 100 100 100 100 6 96 5 32 100 100 2 0 0 0 0 0 0 0 0 0 0 0 0 0 0 0
95 100 100 100 100 100 97 82 91 100 100 100 100 54 3 0 2 40 6 0 0 0 0 0 0 0 0 0 0 0 0 0 0
30 61 100 100 100 100 100 100 100 100 100 100 100 100 20 0 5 0 22 4 0 0 0 0 0 0 0 0 0 0 0 0 0
0 0 2 46 99 100 100 100 100 97 100 100 100 100 49 5 1 4 0 0 0 0 0 0 0 0 0 0 0 0 0 0 0
0 0 0 0 21 27 100 100 100 100 100 99 100 97 100 80 4 5 0 0 0 0 0 0 0 0 0 0 0 0 0 0 0
0 0 0 0 0 2 1 92 100 59 100 100 100 96 50 27 5 3 0 0 0 0 1 0 0 0 0 0 0 0 0 0 0
0 0 0 0 5 0 0 15 79 86 44 70 100 100 82 84 80 100 60 3 0 1 4 0 0 0 0 0 0 0 0 2 0
0 0 0 0 0 45 2 0 95 88 34 98 100 100 99 74 99 100 100 100 78 24 18 91 11 0 0 0 0 0 0 0 0
0 0 0 0 0 0 14 18 3 39 79 43 97 99 98 100 96 100 100 100 100 48 88 100 85 30 8 1 24 7 0 0 35
0 0 0 0 0 0 0 0 77 58 91 14 84 100 100 80 100 92 93 99 100 100 70 81 100 100 62 49 35 83 11 0 0
0 0 0 0 0 0 0 0 32 100 84 100 20 64 97 100 91 100 100 100 98 96 100 100 74 100 100 84 98 27 67 3 4
0 0 0 0 0 0 0 0 0 74 89 89 99 64 57 100 100 100 100 95 94 82 100 100 99 97 84 93 94 58 8 29 4
90 60 0 0 0 0 0 26 31 89 61 92 58 88 95 99 90 100 100 100 100 100 69 99 100 100 93 12 82 96 96 100 100
100 100 100 99 100 79 3 56 95 100 95 59 79 77 96 93 100 100 100 100 100 100 95 94 100 100 100 100 94 89 98 100 100

GFSFLT1_prec_cloud_075.txt.gz
Cloud_Cover
33 5 0 0 0 0 5 38 72 74 15 9 3 0 2 0 0 0 0 0 0 0 0 0 0 0 0 0 2 0 0 0 0
59 7 5 4 5 2 5 7 1 4 26 25 6 4 1 3 0 0 0 0 0 0 0 0 0 0 0 0 0 0 0 0 0
100 95 38 5 5 75 43 20 5 6 16 62 92 66 26 5 0 0 0 0 0 0 0 0 0 0 0 0 0 0 0 0 0
100 100 100 99 8 88 44 14 4 8 29 66 70 54 30 18 0 0 0 0 0 0 0 0 0 0 0 0 0 0 0 0 0
100 100 100 99 96 89 20 5 5 5 58 100 100 100 98 30 99 14 0 0 0 0 0 0 0 0 0 0 0 0 0 0 0
100 100 100 100 100 98 43 65 89 77 61 3 20 100 68 78 100 100 38 0 0 0 0 0 0 0 0 0 0 0 0 0 0
100 100 100 100 100 100 100 100 78 53 73 26 2 6 18 23 79 77 100 57 0 0 0 0 0 0 0 0 0 0 0 0 0
61 100 94 100 100 100 100 100 100 100 96 61 100 66 74 29 5 38 100 97 20 0 0 0 0 0 0 0 0 0 0 0 0
0 1 42 26 63 90 100 100 100 100 100 100 100 100 100 5 78 5 5 31 40 0 0 0 0 0 0 0 0 0 0 0 0
0 0 0 16 73 96 56 99 100 100 100 100 100 99 100 99 96 99 34 3 0 0 0 0 0 0 0 0 0 0 0 0 0
0 0 0 0 1 45 53 87 100 100 100 100 100 100 100 100 100 100 90 26 4 0 0 0 0 0 0 0 0 0 0 0 0
0 0 0 0 0 0 43 48 12 51 95 100 100 100 100 96 100 100 100 93 48 39 39 4 0 0 0 0 0 0 0 6 0
0 0 0 0 0 0 0 11 92 57 8 29 57 98 100 100 98 100 99 100 62 69 76 26 4 0 0 0 0 0 0 6 0
0 0 0 0 0 0 0 0 0 0 8 47 5 5 90 100 100 98 100 94 98 53 57 66 75 55 14 1 0 0 0 0 0
0 0 0 0 0 0 0 0 0 0 0 25 19 0 7 28 80 94 100 96 100 100 100 99 98 100 84 25 16 9 4 0 43
0 0 0 0 0 0 0 0 0 0 0 17 39 0 0 2 13 100 100 85 92 100 64 43 59 98 79 74 6 13 19 0 0
2 0 0 0 1 0 0 0 0 0 11 83 14 5 0 5 16 99 100 100 100 100 100 100 100 90 68 46 92 10 38 28 3
65 67 45 50 67 54 16 0 0 0 0 95 44 4 0 2 21 18 100 95 63 100 100 100 88 77 94 100 62 44 48 16 54
82 32 17 100 100 100 100 100 87 13 17 96 40 41 52 10 3 53 97 64 76 16 100 99 79 99 91 46 100 98 60 100 100
72 98 100 100 100 100 100 48 100 100 99 61 97 84 60 69 8 5 33 100 93 100 52 64 100 98 100 100 100 100 100 100 100

GFSFLT1_prec_cloud_078.txt.gz
Cloud_Cover
96 100 74 100 94 100 33 4 10 17 5 100 100 46 19 4 0 0 0 0 24 11 58 74 4 0 0 1 2 0 0 2 0
90 84 71 70 82 98 50 2 3 3 97 62 79 98 5 4 0 0 0 0 0 1 0 46 0 0 0 3 0 0 0 2 0
90 50 76 100 100 37 4 0 5 1 22 5 91 100 98 6 0 0 0 0 0 0 12 0 13 0 1 0 0 0 1 0 0
100 98 22 48 100 100 16 7 2 92 96 91 18 40 100 76 30 0 0 0 0 0 0 0 0 0 1 98 54 1 0 0 9
100 100 100 100 90 100 97 36 21 79 95 88 75 39 72 100 99 78 6 0 0 0 0 0 0 0 4 2 3 4 5 0 0
100 100 100 100 100 100 99 98 98 80 42 59 95 51 14 74 100 19 54 0 0 0 0 0 0 0 0 0 0 5 0 0 0
100 100 100 100 100 100 100 100 90 64 93 76 24 13 6 0 56 3 14 13 0 0 0 0 0 0 0 0 3 0 2 0 2
76 99 100 100 100 100 100 100 100 100 79 81 92 27 34 13 2 1 1 0 42 0 0 0 0 0 0 0 0 2 1 0 0
0 0 0 5 25 82 100 100 100 100 100 100 93 43 24 78 71 44 14 1 5 0 0 0 0 0 0 0 0 0 0 0 1
0 0 0 0 30 8 49 94 92 100 100 100 100 100 97 64 66 100 100 100 43 6 0 0 0 0 0 0 0 0 0 0 0
0 0 0 0 0 0 0 39 90 100 100 100 100 100 100 100 100 100 95 100 100 94 47 22 1 0 0 0 0 0 0 0 0
0 0 0 0 0 0 0 0 0 33 100 61 96 100 100 100 100 100 100 100 40 100 100 100 74 14 8 9 0 0 0 3 0
0 0 0 0 0 0 0 0 0 0 0 60 30 10 59 98 100 100 100 96 97 100 66 69 95 96 45 16 7 0 0 11 0
0 0 0 0 0 0 0 0 0 0 0 0 0 0 1 60 92 97 97 100 100 94 100 97 45 33 50 83 48 20 0 0 0
0 0 0 0 0 0 0 0 0 0 0 0 0 0 0 0 31 100 99 97 95 100 100 97 100 52 9 47 43 52 8 0 74
0 0 0 0 0 0 0 0 0 0 0 0 0 0 0 0 0 0 3 18 99 43 69 94 72 89 26 46 69 90 17 0 0
0 3 8 17 15 12 8 6 2 3 0 0 0 0 0 0 0 0 0 0 0 88 56 28 96 72 61 29 91 68 100 71 13
17 54 100 100 100 78 35 23 77 80 72 40 0 0 0 0 0 0 0 0 0 0 2 9 8 43 81 22 15 81 100 94 78
87 73 100 100 100 100 100 90 99 45 26 15 98 73 0 0 0 0 0 0 0 0 6 16 5 21 63 98 29 50 94 86 100
100 100 100 100 100 100 100 100 93 68 97 91 40 100 93 17 0 0 0 0 0 0 0 5 54 7 74 100 98 100 100 100 100

GFSFLT1_prec_cloud_084.txt.gz
Cloud_Cover
100 100 100 100 100 100 97 89 0 0 0 0 5 0 13 1 0 1 0 94 84 75 70 97 80 32 0 0 0 0 27 0 0
96 100 100 100 95 61 87 100 10 0 0 0 0 5 4 9 0 3 5 5 1 0 42 78 47 49 90 4 0 5 5 1 34
100 99 100 46 99 84 75 91 24 0 0 0 0 0 5 2 0 5 65 5 7 0 91 84 100 100 100 100 5 5 82 16 74
100 100 100 89 100 100 100 100 100 100 19 44 0 0 2 0 0 0 1 98 7 5 0 11 72 100 100 100 9 34 97 26 61
100 100 92 100 100 100 100 100 100 100 100 98 38 0 0 0 0 0 0 0 99 69 5 0 0 1 31 0 10 5 100 84 5
100 100 100 100 100 100 100 100 100 100 100 100 10 25 0 0 0 0 0 0 4 14 45 0 0 0 0 0 0 0 24 98 5
100 100 98 90 84 100 100 100 99 100 100 100 68 100 100 100 66 1 0 0 0 0 0 3 5 2 0 0 0 0 0 0 48
81 100 96 40 16 61 100 100 100 98 94 90 99 73 100 100 100 79 64 40 0 0 0 0 0 1 1 0 0 0 0 0 0
0 0 81 98 96 47 24 12 14 100 100 100 100 100 46 54 100 100 54 3 39 6 1 0 0 0 0 0 0 0 0 0 0
0 0 0 0 2 5 5 16 96 100 100 100 100 100 100 100 100 84 83 22 4 5 47 59 2 1 0 0 0 0 0 0 0
0 0 0 0 0 0 0 0 51 100 100 100 100 100 100 95 84 84 79 48 95 48 24 49 93 4 0 0 0 0 0 0 0
0 0 0 0 0 0 0 0 0 5 100 100 100 100 100 100 91 83 66 53 75 100 100 89 74 7 5 0 0 0 0 0 0
0 0 0 0 0 0 0 0 0 0 2 100 100 100 100 100 100 24 95 61 66 93 100 94 21 37 49 4 0 0 0 4 0
0 0 0 0 0 0 0 0 0 0 0 0 48 100 100 100 100 76 4 2 4 5 45 88 78 30 5 5 46 5 6 2 2
0 0 0 0 0 0 0 0 0 0 0 0 0 0 5 27 8 3 56 71 0 0 5 12 72 74 100 21 6 95 48 93 100
0 0 0 0 0 0 0 0 0 0 0 0 0 0 0 0 0 0 0 2 6 0 0 0 0 25 66 98 100 81 100 100 100
4 37 0 0 0 0 17 0 6 0 0 0 0 0 0 0 0 0 0 0 0 0 0 0 0 0 10 78 100 68 100 98 100
9 28 23 6 9 24 33 21 20 24 22 11 7 0 0 0 0 0 0 0 0 0 0 0 0 0 0 22 100 77 62 95 97
20 42 25 34 28 53 50 28 34 23 20 20 20 19 2 0 0 0 0 0 0 0 0 0 0 0 0 0 17 100 100 58 91
5 5 5 5 23 38 31 57 89 76 12 20 16 8 0 0 0 0 0 0 0 0 0 0 0 0 0 0 0 0 82 68 29

GFSFLT1_prec_cloud_087.txt.gz
Cloud_Cover
80 100 100 100 100 100 100 100 39 12 0 0 0 35 2 1 0 4 56 5 100 100 3 6 94 10 6 87 27 3 4 3 0
100 97 100 100 100 100 100 100 100 21 11 6 31 0 4 5 3 10 5 75 42 93 82 2 9 71 100 100 27 5 5 5 8
100 100 100 100 99 97 100 34 94 95 100 100 100 100 24 0 1 1 0 3 12 58 12 48 44 100 100 100 11 58 20 10 16
100 100 100 100 100 100 98 100 100 100 100 100 100 100 100 7 0 0 0 0 3 2 55 5 5 16 78 81 88 38 5 1 0
100 100 100 100 100 100 100 100 100 100 100 100 100 100 87 12 0 0 69 99 1 5 5 10 5 2 3 7 0 0 5 3 0
100 100 100 100 100 100 100 100 100 100 100 100 100 100 100 100 100 100 100 100 98 1 0 1 5 5 5 3 1 0 0 0 1
100 100 100 100 100 100 100 95 100 100 100 100 100 100 100 86 100 100 100 100 100 58 1 0 0 0 0 0 0 0 0 0 0
100 100 100 96 77 100 89 66 100 100 100 100 100 100 100 80 100 100 100 100 100 100 90 81 73 2 1 0 0 0 0 0 0
100 100 83 99 100 10 4 8 74 100 100 100 100 100 100 100 100 100 100 100 100 100 94 72 10 5 9 23 1 0 0 0 0
96 100 58 6 89 43 32 12 16 28 100 100 100 100 100 100 100 100 100 100 100 100 100 97 16 8 71 7 97 64 1 0 0
3 2 4 0 0 0 8 41 39 60 61 97 100 100 100 100 100 100 100 100 100 100 100 100 100 13 5 38 5 5 5 30 2
41 2 0 0 0 0 0 0 0 0 5 33 19 100 100 100 100 100 100 100 100 100 100 100 100 24 6 10 5 3 1 17 83
3 0 0 0 0 0 0 0 0 0 0 5 5 100 94 100 100 100 100 100 100 100 100 91 97 100 100 100 60 22 36 44 69
99 0 0 0 0 0 0 0 0 0 0 0 0 72 100 100 100 100 100 100 100 100 100 100 100 85 100 95 46 58 100 100 27
1 3 0 0 0 0 0 0 0 0 0 0 0 0 82 100 100 100 100 100 100 100 100 100 100 79 99 92 100 100 95 100 96
0 0 0 0 0 0 0 0 0 0 0 0 0 0 0 100 100 100 100 100 100 100 100 100 100 95 21 37 10 38 100 79 24
0 0 0 0 0 0 0 0 0 0 0 0 0 0 0 0 0 0 0 82 100 100 94 92 100 100 100 16 1 0 0 0 1
0 0 0 0 0 0 0 0 0 0 0 0 0 0 0 0 0 0 0 0 0 54 100 100 100 92 86 58 4 2 0 0 0
0 0 0 0 0 0 0 0 0 0 0 0 0 0 0 0 0 0 0 0 0 0 0 0 0 0 0 0 0 0 0 0 0
5 5 5 5 4 0 0 0 0 0 0 0 0 0 0 0 0 0 0 0 0 0 0 0 0 0 0 0 0 0 0 0 0

GFSFLT1_prec_cloud_090.txt.gz
Cloud_Cover
100 62 99 100 100 97 100 100 100 87 100 100 100 100 100 23 1 29 24 74 36 5 22 4 67 54 38 69 97 5 96 25 4
100 100 99 100 100 100 100 100 100 100 82 96 100 100 100 97 80 38 0 12 71 70 63 58 2 17 9 98 100 21 69 7 5
99 100 100 100 100 100 100 100 100 99 100 100 100 100 100 100 100 43 2 1 100 100 32 11 5 25 71 91 99 100 7 27 1
95 98 100 100 100 100 100 98 54 96 100 100 100 100 100 100 100 98 62 100 100 100 97 61 99 48 77 4 68 98 0 5 0
100 100 100 100 100 100 100 94 100 99 100 100 99 100 100 100 100 100 100 100 100 100 100 100 18 5 9 6 8 5 0 1 5
100 100 100 100 100 100 100 100 100 100 100 100 100 100 100 100 100 100 100 100 100 100 100 100 78 89 41 2 0 0 0 0 4
100 100 100 100 100 100 100 100 100 100 100 100 100 100 100 100 100 100 100 100 100 100 100 100 100 100 66 41 90 90 7 0 0
100 100 100 100 100 100 100 100 100 100 100 100 100 100 100 100 100 58 84 100 100 100 100 100 100 100 100 27 39 93 18 67 5
100 100 100 100 100 100 100 100 100 100 100 100 100 100 100 100 100 100 100 100 100 100 69 100 100 100 95 97 8 5 43 71 70
99 99 100 100 100 100 100 100 100 100 100 100 100 100 100 100 100 100 99 100 100 100 100 100 100 100 100 39 95 5 5 4 100
100 100 91 80 69 100 100 100 100 100 100 100 100 100 100 100 100 100 100 100 100 100 100 100 100 100 100 100 90 12 5 7 23
96 100 80 92 97 100 100 100 100 100 100 100 67 100 100 100 100 100 100 100 100 100 100 100 100 100 100 100 99 98 89 39 12
92 5 98 54 28 2 75 100 100 100 15 25 30 19 99 100 100 100 100 100 100 100 100 100 100 100 100 84 100 100 100 92 34
83 100 93 10 64 10 1 0 0 8 17 0 73 82 0 77 100 100 100 100 100 100 100 100 100 100 100 85 100 100 100 100 41
93 78 98 65 11 5 0 0 0 0 3 69 38 28 2 0 1 100 100 100 100 100 100 100 100 100 100 100 100 100 100 100 100
100 99 99 29 3 0 0 0 0 0 0 0 0 0 0 0 0 0 7 78 100 100 100 100 100 100 100 100 98 100 100 48 5
0 0 0 0 0 0 0 0 0 0 0 0 0 0 0 0 0 0 0 0 99 100 100 100 100 100 100 99 95 100 100 100 52
27 0 0 0 0 0 0 0 0 0 0 0 0 0 0 0 0 0 0 0 0 97 100 100 100 100 100 100 100 100 100 100 99
43 3 0 0 0 0 0 0 0 0 0 0 0 0 0 0 0 0 0 0 0 0 12 97 100 100 100 100 100 90 100 93 100
5 5 5 4 0 0 0 0 0 0 0 0 0 0 0 0 0 0 0 0 0 0 0 0 0 6 99 100 100 100 100 46 37

GFSFLT1_prec_cloud_093.txt.gz
Cloud_Cover
100 82 79 100 100 100 93 98 97 96 33 50 100 100 24 93 100 97 7 93 83 5 4 1 5 5 50 27 77 81 5 5 1
100 100 100 100 100 100 100 92 91 88 100 100 8 94 96 99 100 100 19 95 100 100 66 4 5 1 38 8 16 82 0 5 0
100 99 100 100 100 100 94 99 100 100 70 100 78 52 8 31 98 100 38 100 100 100 100 100 11 4 1 14 3 96 0 2 5
98 100 100 100 100 100 100 100 100 100 100 100 89 40 24 13 100 100 100 100 100 100 100 100 84 45 20 27 99 98 24 25 5
100 100 100 100 100 100 100 100 100 100 100 100 100 100 98 97 100 100 100 100 100 100 100 100 100 100 81 32 73 100 82 75 5
100 100 100 100 100 100 100 100 100 100 100 92 100 100 100 100 100 97 97 100 100 100 100 100 100 100 100 100 99 71 92 86 77
100 100 100 100 100 100 100 100 100 100 100 100 100 100 100 100 100 69 65 100 91 100 100 100 99 100 100 100 100 96 70 58 63
100 100 100 100 100 100 100 100 100 100 100 100 100 100 100 100 100 97 100 100 96 95 100 100 100 100 100 100 100 100 99 21 33
100 100 100 100 100 100 100 100 100 100 100 100 100 100 100 100 100 100 98 97 79 100 100 100 100 100 100 100 100 100 100 96 5
99 100 100 100 100 100 100 100 100 100 100 100 100 100 100 100 100 100 100 100 88 100 100 100 100 100 100 100 100 100 100 100 42
94 100 100 100 100 100 100 100 100 100 100 100 100 100 100 100 100 100 100 100 100 100 100 100 100 100 100 100 100 100 100 100 100
100 97 100 99 100 100 100 100 100 100 100 100 100 100 100 100 100 100 100 100 100 100 100 100 100 100 100 100 100 100 100 100 100
100 100 100 60 88 100 100 100 100 88 36 100 100 100 100 100 100 100 100 100 100 100 100 100 100 100 100 100 100 100 100 92 98
100 100 76 99 100 52 88 92 89 100 11 28 54 100 100 100 100 100 100 100 100 100 100 100 100 100 100 100 100 100 100 100 100
100 98 32 5 21 51 98 11 52 5 44 22 0 5 94 100 100 100 100 100 100 100 100 100 100 100 100 100 100 100 100 100 100
91 15 16 5 5 10 5 86 5 5 5 2 1 48 100 100 100 100 100 100 100 100 100 100 100 100 100 100 100 100 100 100 100
100 100 100 100 100 100 41 5 14 5 1 4 3 0 97 100 100 100 100 100 100 100 87 96 100 100 100 100 100 100 100 100 100
100 100 95 54 5 5 80 63 62 0 0 1 0 0 1 87 100 100 100 100 100 71 20 4 99 100 100 100 100 100 100 100 100
85 66 30 8 5 5 0 0 0 0 0 0 0 0 0 0 21 72 80 60 6 35 6 5 4 5 29 100 100 100 100 100 100
100 100 100 57 5 5 5 0 0 0 0 0 0 0 0 0 0 0 0 0 0 0 0 0 0 0 0 0 0 1 21 6 100

GFSFLT1_prec_cloud_096.txt.gz
Cloud_Cover
100 94 93 100 100 74 97 100 99 94 95 100 100 42 18 94 58 56 14 55 97 97 70 0 0 10 91 69 59 16 13 5 2
100 100 84 53 100 100 100 100 95 100 94 85 96 94 50 79 100 86 34 100 26 100 83 7 5 45 70 100 8 43 19 46 11
100 100 98 100 100 100 100 100 75 100 100 93 60 99 8 71 100 100 69 100 100 100 100 100 98 12 81 42 9 72 91 84 90
100 100 100 100 100 100 100 100 100 100 100 100 66 20 5 5 96 100 100 100 99 100 69 100 100 100 100 77 100 49 13 84 100
100 100 100 100 100 100 100 100 100 100 100 99 100 39 5 5 5 95 100 100 100 99 98 100 100 100 100 100 100 96 6 49 98
100 100 100 100 100 100 100 100 100 100 100 100 100 100 84 99 100 99 100 100 100 100 100 85 100 100 100 100 100 100 96 44 84
100 100 100 100 96 97 98 99 100 100 100 100 100 100 95 100 100 100 100 64 100 100 99 43 100 95 57 100 100 100 100 100 33
100 100 100 100 100 98 100 100 100 100 100 100 100 100 100 100 100 100 100 100 70 100 100 98 100 100 86 99 100 100 100 100 90
100 100 100 100 100 100 100 100 100 100 100 100 100 100 100 100 100 100 84 100 98 87 100 98 91 96 100 100 100 100 100 100 100
100 100 100 100 100 100 100 100 100 100 100 100 100 100 100 100 100 100 100 100 100 64 87 72 6 98 97 100 100 100 100 100 94
100 100 100 100 100 100 100 100 100 100 100 100 100 100 100 100 100 100 100 100 100 94 95 58 38 65 100 100 98 100 100 100 100
100 100 100 100 100 100 100 100 100 100 100 100 100 95 98 100 100 100 100 99 98 100 98 100 85 85 98 96 85 100 100 100 100
100 100 100 100 100 100 100 100 100 100 100 100 100 100 100 100 100 100 100 100 99 100 100 100 100 100 100 100 100 100 100 100 95
100 100 100 100 100 100 100 86 91 100 100 100 100 100 100 100 100 100 100 100 100 100 100 100 100 100 100 100 100 100 100 100 100
40 18 9 19 21 5 5 1 2 71 100 100 100 100 100 100 100 100 100 100 100 100 100 100 100 100 100 100 100 100 100 100 100
5 5 94 80 6 5 5 4 0 0 4 10 80 100 100 100 100 100 100 100 100 100 100 100 100 100 100 100 100 100 100 100 100
99 99 96 100 98 50 5 4 1 1 0 0 0 38 100 100 100 100 100 100 100 100 100 100 100 100 100 100 100 100 100 100 100
100 100 96 99 98 52 25 57 98 19 63 11 14 0 18 100 100 100 100 100 100 96 38 95 100 100 100 100 100 100 100 100 100
100 100 100 90 96 100 98 59 5 78 100 100 85 7 3 3 98 100 100 100 100 58 5 0 84 100 100 100 100 100 100 100 100
100 99 81 94 68 99 96 6 5 7 0 0 4 11 0 0 0 3 8 8 15 1 0 2 0 0 35 100 100 100 100 100 100

GFSFLT1_prec_cloud_099.txt.gz
Cloud_Cover
100 98 90 93 15 99 84 6 4 1 12 100 100 5 47 100 99 19 15 74 24 0 2 5 5 6 5 5 59 31 22 12 99
84 100 100 100 55 100 98 17 100 9 0 87 98 83 5 86 100 100 100 100 100 100 67 12 9 20 26 19 5 83 94 50 93
100 100 100 100 100 100 99 78 92 63 5 16 89 48 10 1 25 66 100 100 100 100 94 100 99 94 89 100 74 41 49 82 100
100 100 100 93 97 100 100 100 100 100 88 42 87 38 86 14 1 5 9 100 100 100 95 64 6 15 86 100 100 83 14 32 100
100 100 100 100 100 100 100 100 100 100 98 74 96 100 93 76 5 7 9 56 100 100 100 100 100 78 14 8 100 100 78 53 74
100 100 100 100 100 100 100 98 100 100 100 95 98 44 73 100 100 53 100 100 97 82 95 100 100 89 7 54 93 100 100 7 5
100 100 100 100 100 100 100 99 100 100 100 100 100 89 71 92 100 100 81 52 66 100 57 41 62 55 66 5 54 100 100 100 38
100 100 100 100 100 100 100 100 93 100 100 100 100 100 100 100 100 100 74 45 58 100 100 39 90 77 13 100 91 100 100 90 77
100 100 100 100 100 100 100 100 100 100 100 100 100 100 100 100 100 100 100 84 94 92 100 100 57 58 28 75 100 99 100 100 75
100 100 100 100 100 100 100 100 100 100 100 100 100 100 100 100 100 100 100 100 98 100 100 100 89 92 66 86 91 90 100 100 97
100 100 100 100 100 100 100 100 100 100 100 100 100 100 100 100 100 100 100 100 100 99 83 88 99 93 69 18 51 100 99 100 100
100 100 100 100 100 100 100 100 100 100 100 100 100 100 100 100 100 100 100 100 100 100 90 84 92 80 73 53 72 57 95 91 100
98 100 100 100 100 100 100 100 100 100 100 100 100 100 100 100 100 100 100 100 100 83 100 100 99 98 91 32 99 88 80 40 96
100 100 100 100 100 100 100 100 100 100 100 100 100 100 100 100 100 100 100 77 99 100 100 100 100 100 97 100 100 100 92 100 100
100 100 100 100 100 100 100 100 100 100 100 100 100 100 100 100 100 100 100 100 90 100 100 100 100 100 100 100 100 100 100 100 100
100 100 100 100 100 100 100 100 89 54 86 100 100 100 100 100 100 100 100 100 100 100 100 100 100 100 100 100 100 100 100 100 100
100 98 94 100 100 100 100 64 4 5 4 1 91 100 100 100 100 100 100 100 100 100 100 100 100 100 100 100 100 100 100 100 100
100 71 84 63 74 70 53 8 5 14 13 5 5 2 8 95 100 100 100 100 100 100 100 100 100 100 100 100 100 100 100 100 100
100 100 99 92 87 84 78 89 99 95 72 20 5 4 21 0 11 10 2 6 63 98 100 100 100 100 100 100 100 100 100 100 100
100 100 100 100 100 98 100 100 100 99 100 98 100 89 100 16 76 96 27 5 0 0 1 100 100 100 100 100 100 100 100 100 100

GFSFLT1_prec_cloud_102.txt.gz
Cloud_Cover
100 100 98 100 42 6 0 0 0 1 1 50 100 30 12 17 93 77 100 89 100 18 13 13 26 68 5 41 86 81 10 37 86
100 100 100 96 63 12 1 5 1 1 5 3 100 100 13 5 77 85 85 100 63 88 50 69 9 17 72 100 6 12 68 100 99
100 100 100 100 74 54 37 20 9 13 0 5 74 99 77 5 5 30 5 66 88 96 100 98 32 6 98 100 98 4 5 27 100
100 100 100 100 100 95 100 86 5 63 12 13 13 100 45 6 26 5 44 11 30 100 100 100 97 100 89 85 100 37 9 5 30
98 100 100 100 100 100 100 36 86 100 100 100 63 16 90 10 50 12 39 98 92 100 100 100 100 100 98 95 52 100 68 5 8
54 100 100 100 97 100 94 90 100 100 100 100 99 95 14 20 5 3 14 5 69 18 100 66 15 94 100 46 49 100 100 87 22
95 99 100 100 100 100 100 94 90 99 100 100 100 100 86 30 8 44 32 10 19 29 4 86 84 4 38 64 45 28 100 100 80
100 100 100 100 100 100 100 100 100 78 100 100 100 100 100 95 93 14 11 25 26 15 26 5 100 100 23 5 45 70 30 72 80
100 100 100 100 100 100 100 97 100 84 84 100 100 100 100 100 100 68 98 74 100 73 56 40 100 100 84 6 7 52 97 88 54
100 100 100 100 100 100 100 100 100 100 99 100 100 100 100 100 100 100 100 100 100 100 82 86 84 100 98 44 30 96 99 99 8
95 100 100 100 100 100 100 100 100 95 94 100 99 95 100 100 100 100 100 100 100 100 100 100 100 80 79 5 7 86 96 29 25
98 100 100 100 100 100 100 100 100 100 100 100 100 100 100 100 100 100 100 100 100 100 100 100 100 90 33 73 79 87 41 46 45
97 100 100 100 100 100 100 100 100 100 100 100 100 100 100 100 100 100 100 100 98 100 100 100 100 92 64 46 30 98 80 19 5
97 100 100 100 100 100 100 100 100 100 100 100 100 100 100 100 100 100 100 100 98 100 100 100 100 100 97 100 100 100 96 71 99
100 100 100 100 100 100 100 100 100 100 100 100 100 100 100 100 100 100 100 100 100 100 100 100 100 100 100 100 100 100 100 100 100
100 100 100 100 100 100 100 100 100 100 100 100 100 100 100 100 100 100 100 100 100 100 100 97 100 100 100 100 100 100 100 100 100
100 100 100 100 100 100 100 100 100 100 100 100 100 100 100 100 100 100 100 100 100 100 100 100 100 100 100 100 100 98 100 100 100
100 100 100 100 100 100 100 100 100 100 100 100 100 24 75 100 100 100 100 100 100 100 100 100 100 100 100 100 100 92 5 68 100
100 100 100 100 100 100 100 100 100 100 100 100 100 98 54 5 5 6 4 54 100 97 94 100 100 100 100 100 100 100 100 100 98
100 100 100 100 100 100 100 100 100 100 100 100 100 99 87 23 98 5 5 4 0 2 86 100 100 90 99 100 100 100 100 100 100

GFSFLT1_prec_cloud_105.txt.gz
Cloud_Cover
95 92 95 92 100 52 0 56 100 5 30 0 92 87 3 8 100 13 5 16 99 100 53 87 55 2 0 5 33 26 50 8 74
97 99 93 98 97 11 100 20 11 18 26 5 87 48 54 6 79 49 100 86 70 99 27 19 42 69 42 29 10 30 28 49 18
100 100 96 100 100 59 30 23 50 34 83 21 3 100 24 6 72 5 16 98 100 100 100 100 99 100 97 100 74 58 21 22 27
100 100 98 100 84 100 86 82 97 71 57 90 82 82 98 14 6 5 7 34 67 31 78 70 75 100 100 100 76 90 89 5 65
36 100 100 100 100 100 85 83 99 100 52 96 89 84 52 98 8 17 16 5 20 94 96 92 100 100 97 22 66 84 100 100 81
100 100 100 91 78 99 100 100 61 100 35 66 98 9 97 100 60 52 34 15 7 84 17 85 40 75 92 100 77 100 99 100 100
96 92 100 100 100 100 100 100 100 100 100 100 94 100 94 34 92 43 98 100 9 12 6 5 27 36 94 94 70 81 61 46 95
100 100 95 100 100 100 100 96 100 90 75 96 100 100 100 100 100 100 100 92 88 72 5 12 5 31 99 100 95 64 13 31 80
100 100 100 90 100 100 100 100 92 83 94 62 100 100 100 99 100 100 59 71 39 77 81 6 5 42 55 17 92 73 81 54 24
100 100 100 99 98 100 100 100 100 100 100 87 99 95 100 100 100 89 100 99 100 78 78 99 50 78 100 96 98 100 97 94 16
100 100 100 100 100 100 100 100 100 97 100 100 90 100 73 93 100 100 100 97 100 100 100 100 100 100 100 94 46 97 84 45 11
100 100 100 99 100 100 98 100 100 100 100 100 100 82 91 92 96 100 100 100 100 100 100 100 100 100 100 98 73 25 57 29 53
91 100 100 100 100 100 100 100 100 100 100 100 100 100 100 100 100 99 100 100 100 100 100 100 100 100 100 93 98 100 97 100 100
98 100 100 100 100 100 100 100 100 100 100 100 100 100 100 100 100 100 100 100 100 100 100 100 100 100 100 100 100 100 100 100 95
100 100 100 100 100 100 100 100 100 100 100 100 100 100 100 100 100 100 100 97 100 100 100 100 100 100 100 100 100 100 100 100 100
100 100 100 100 100 100 100 100 100 100 100 100 100 100 100 100 100 100 100 100 100 100 100 100 100 100 100 100 100 100 100 100 100
100 100 100 100 100 100 100 100 100 100 100 100 100 100 100 100 100 100 100 100 100 100 98 100 100 100 100 100 100 100 100 100 100
100 100 100 100 100 100 100 100 93 100 100 100 100 100 100 100 97 98 78 62 100 100 100 100 100 100 100 100 100 100 100 100 96
100 100 100 100 100 100 97 100 100 100 100 100 97 100 100 100 100 100 45 5 5 11 100 100 100 100 100 100 100 98 80 100 90
100 100 100 100 100 100 100 100 100 100 100 100 100 100 100 100 100 94 25 4 5 74 59 33 100 100 100 100 100 100 100 100 100

GFSFLT1_prec_cloud_108.txt.gz
Cloud_Cover
100 100 90 100 52 82 100 47 60 4 5 8 100 3 1 50 41 86 70 100 100 100 99 100 100 72 39 4 25 5 5 10 100
96 92 89 5 85 100 100 9 4 37 5 5 57 100 22 5 12 8 12 54 99 100 100 100 100 100 92 51 5 33 13 20 23
100 52 5 37 73 55 100 20 100 76 73 3 3 86 60 5 12 96 5 5 100 100 100 100 100 100 60 69 76 73 100 64 13
100 98 38 73 99 71 92 93 97 1 42 2 0 0 18 4 63 32 51 19 0 93 100 90 100 100 88 40 47 64 87 100 99
100 100 100 100 88 71 100 80 79 90 22 58 30 0 0 7 10 6 5 5 5 5 6 93 22 96 100 45 26 6 79 93 100
100 100 100 86 49 76 90 98 100 100 100 100 100 18 13 64 18 98 35 95 1 5 20 35 5 16 87 8 10 100 71 60 50
100 99 100 96 21 16 68 100 100 100 100 100 100 100 90 22 48 83 2 53 100 63 4 1 37 27 41 5 70 87 68 18 23
100 100 100 100 15 13 5 96 100 100 100 100 84 53 98 90 92 96 41 54 82 100 69 5 3 4 4 74 84 100 100 24 36
100 100 100 100 100 54 33 5 92 100 100 100 90 100 100 100 100 100 89 99 99 100 27 6 5 46 5 34 52 21 98 96 26
100 100 100 100 100 87 69 56 74 99 34 100 90 100 100 88 98 90 72 96 100 100 32 96 100 100 100 64 26 50 29 66 90
100 100 100 100 100 100 100 100 100 100 100 100 100 100 100 89 98 81 92 100 100 92 100 99 100 100 100 100 70 11 16 20 56
100 100 100 100 100 100 100 100 100 100 100 100 100 100 100 80 44 100 88 100 100 100 96 70 100 100 100 100 95 100 99 77 57
100 100 100 100 100 100 100 100 100 100 100 100 100 100 100 100 98 93 94 100 100 100 98 100 100 100 100 100 100 100 96 100 74
100 100 100 100 100 100 100 100 100 100 100 100 100 100 100 100 100 100 92 100 77 100 100 100 100 100 100 100 100 100 100 98 83
100 100 100 100 100 100 100 100 100 100 100 100 100 100 100 100 100 100 100 100 100 100 100 100 100 100 100 100 100 99 100 96 98
100 100 100 100 100 100 100 100 100 100 100 100 100 100 100 100 100 100 100 100 100 100 100 100 100 100 100 99 100 100 100 100 100
100 100 100 100 100 100 100 100 100 100 100 100 100 100 100 100 100 100 100 100 100 100 100 100 100 100 100 100 100 96 100 100 100
100 100 100 100 100 100 100 100 100 100 100 100 100 100 100 100 100 100 100 100 100 100 100 100 100 100 100 100 100 96 100 100 100
100 100 100 100 100 100 100 100 100 100 100 100 100 100 100 100 100 100 100 100 100 100 100 100 100 100 100 100 100 100 100 100 100
100 100 100 100 100 100 100 100 100 100 100 100 100 100 100 100 100 100 100 100 100 100 100 100 100 100 100 100 100 71 100 92 0

GFSFLT1_prec_cloud_111.txt.gz
Cloud_Cover
82 100 98 19 87 27 44 75 1 0 0 2 5 2 5 5 5 22 99 100 100 100 100 100 100 100 81 65 34 5 5 6 24
96 100 100 73 33 51 90 2 15 0 0 0 14 85 12 5 90 16 10 98 100 100 100 100 100 100 100 75 100 46 41 57 4
99 99 78 88 9 50 95 58 4 31 25 0 3 4 56 93 6 18 29 88 86 99 84 100 100 100 100 100 100 99 88 91 96
83 72 98 79 100 61 11 99 44 100 2 15 38 4 2 5 25 41 90 43 100 97 91 100 98 100 100 100 90 100 81 52 65
99 100 100 100 100 99 64 100 100 100 23 89 100 100 100 6 5 32 5 5 5 30 6 61 100 11 47 9 46 60 37 80 78
100 100 93 100 100 96 93 86 100 100 100 100 100 100 100 33 5 0 2 22 5 1 6 77 31 35 88 45 28 12 58 92 61
100 100 71 100 100 100 95 100 100 100 100 100 100 100 100 78 29 86 49 9 99 5 1 1 5 62 20 8 12 41 100 26 38
87 94 100 10 79 60 94 100 97 100 100 100 100 100 100 100 99 97 53 76 93 28 34 19 4 0 4 10 52 48 79 27 6
100 72 100 100 50 34 91 94 97 100 100 100 100 100 100 100 100 100 100 100 100 44 64 38 58 68 29 5 41 26 69 40 5
100 100 100 100 100 56 87 95 100 100 100 100 100 100 100 100 100 100 100 100 100 100 93 100 100 100 100 100 89 72 33 6 5
100 100 100 100 100 99 91 100 65 100 100 100 100 100 100 100 100 100 100 40 87 100 100 100 100 100 86 98 71 69 55 54 5
100 100 100 100 100 100 100 100 100 100 100 100 100 100 100 100 100 100 22 92 100 99 100 100 100 94 100 100 100 100 100 100 64
100 100 100 100 100 100 100 100 100 100 100 100 100 100 100 100 100 100 100 100 100 100 99 100 100 100 100 100 100 100 100 100 92
100 100 100 100 100 100 100 100 100 100 100 100 100 100 100 100 100 100 100 100 97 94 99 100 98 100 100 100 100 100 100 100 100
100 100 100 100 100 100 100 100 100 100 100 100 100 100 100 100 100 100 100 100 100 100 100 100 100 100 100 98 100 93 71 100 100
100 100 100 100 100 100 100 100 100 100 100 100 100 100 100 100 100 100 100 100 100 100 100 85 97 100 78 100 100 100 100 100 100
100 100 100 100 100 100 100 100 100 100 100 100 100 100 100 100 100 100 100 100 100 100 100 100 100 100 100 100 100 87 98 100 92
98 72 100 89 100 100 100 100 100 100 100 100 100 100 100 100 100 100 100 100 100 100 100 100 100 100 100 100 100 100 100 99 100
100 100 100 100 100 100 95 100 93 98 84 100 100 100 100 100 100 100 100 100 100 100 100 100 100 100 100 100 100 100 100 100 100
98 100 100 100 100 100 85 100 100 100 100 100 100 100 100 100 100 100 100 100 100 100 100 100 100 100 98 70 100 100 100 100 100

GFSFLT1_prec_cloud_114.txt.gz
Cloud_Cover
99 99 100 70 10 5 0 0 4 0 0 0 5 5 2 4 16 92 100 29 79 96 97 100 100 99 96 100 71 100 98 21 5
100 97 93 45 5 4 13 5 0 0 0 5 6 30 12 38 5 54 94 96 93 98 88 94 96 100 100 100 75 26 99 93 10
100 38 5 56 90 11 29 17 4 4 5 10 4 5 5 6 5 43 82 98 90 99 100 43 100 100 100 100 100 16 47 57 34
100 100 100 100 100 100 5 43 5 7 4 63 19 94 100 96 82 94 14 5 78 6 29 24 100 100 94 100 100 76 100 88 92
100 100 100 100 100 100 22 18 80 4 0 43 31 100 100 100 100 100 83 23 5 2 4 8 95 65 80 76 98 100 89 96 36
76 99 84 94 100 87 60 32 94 31 15 44 92 100 100 100 100 100 100 87 22 5 5 78 5 5 14 13 66 99 96 100 98
100 100 45 85 100 100 100 90 46 60 100 90 56 65 100 100 100 100 100 100 100 99 8 7 0 3 5 9 9 28 47 100 96
100 100 8 44 98 100 100 100 92 95 95 100 97 94 100 97 100 100 100 100 100 100 40 40 2 5 26 38 96 28 81 62 47
100 100 96 82 30 28 87 100 97 100 71 100 100 100 100 100 100 100 100 100 100 100 100 100 61 0 8 100 100 100 84 46 42
100 100 100 100 100 95 100 100 100 100 100 100 73 80 100 100 100 100 100 100 100 100 100 100 100 100 100 46 100 100 100 86 68
100 100 100 100 100 100 100 100 100 100 100 100 100 99 100 100 100 100 100 100 100 100 100 100 100 100 100 100 100 99 89 100 23
100 100 100 100 100 100 100 100 100 100 95 100 100 100 100 100 100 100 100 100 100 100 100 100 100 100 100 100 100 100 100 100 100
100 100 100 100 100 100 100 100 100 100 100 100 100 100 100 100 100 100 100 100 100 100 100 100 100 100 100 100 100 100 100 100 100
100 100 100 100 100 100 100 100 100 100 100 100 100 100 100 100 100 100 100 100 100 100 100 100 100 99 100 100 100 100 100 100 100
100 100 100 100 100 100 100 100 100 100 100 100 100 100 100 100 100 100 100 100 100 100 91 98 86 67 100 100 100 100 100 100 100
100 100 100 100 100 100 100 100 100 100 100 100 100 100 100 100 100 100 100 100 100 100 100 100 100 100 91 69 100 100 100 100 100
100 100 100 100 100 100 100 100 100 100 100 100 100 100 100 100 100 100 100 100 100 100 100 100 100 100 100 100 98 100 100 100 100
99 63 82 100 100 100 100 100 100 100 100 100 100 100 100 100 100 100 100 100 100 100 100 100 100 100 100 100 100 100 100 100 100
100 100 100 96 94 100 100 100 100 66 100 100 100 100 100 100 100 100 100 100 100 100 100 100 100 100 100 100 100 100 100 100 100
100 100 30 18 5 96 100 100 100 100 100 100 100 97 99 100 84 100 100 100 100 100 100 100 100 100 100 100 100 100 100 100 88

GFSFLT1_prec_cloud_117.txt.gz
Cloud_Cover
100 100 79 100 95 2 0 1 2 2 5 50 56 9 5 18 100 100 100 78 99 100 90 100 100 44 94 6 52 63 2 0 1
73 99 5 98 65 5 25 38 0 4 5 4 17 5 51 31 35 70 100 98 100 100 36 87 92 100 100 100 51 95 100 26 5
30 55 54 31 97 22 17 63 16 5 5 5 5 12 35 5 5 4 7 85 100 100 73 69 96 72 100 59 70 95 100 91 57
59 63 97 79 14 97 52 100 99 34 5 5 5 43 100 100 100 100 92 0 3 85 99 98 100 42 75 99 87 29 91 84 69
72 100 100 91 93 90 81 64 100 8 5 5 0 6 26 99 100 100 100 100 27 5 83 86 72 72 92 63 34 78 31 88 98
67 100 100 99 100 63 100 90 69 9 68 30 0 5 5 98 100 100 100 100 100 39 5 5 5 25 8 5 68 75 100 99 100
99 100 100 99 84 72 73 100 99 95 100 51 9 51 100 44 49 72 100 100 100 100 73 8 26 23 49 40 97 99 75 87 83
98 82 100 100 100 100 98 99 100 100 100 100 64 100 81 76 100 95 89 100 100 100 100 99 7 15 67 100 73 85 100 100 91
100 100 100 100 100 100 100 100 100 100 100 100 100 100 84 100 92 30 73 100 51 100 100 100 100 47 100 100 94 93 14 94 93
100 100 100 100 100 100 100 100 100 100 100 100 100 100 100 88 100 100 100 99 100 100 100 100 100 100 100 100 100 70 100 92 50
100 100 100 100 100 100 100 98 92 100 100 100 100 100 100 100 100 100 100 100 100 100 100 100 100 100 100 100 100 100 100 100 98
100 100 100 100 100 100 100 100 100 99 100 100 100 100 100 100 100 100 100 100 100 100 100 100 100 100 100 100 100 100 100 75 90
100 100 100 100 100 100 100 100 100 100 100 100 100 100 96 100 100 100 100 100 100 100 100 100 100 100 100 100 100 100 100 100 100
100 100 100 100 100 100 100 100 100 100 100 100 100 100 100 98 100 100 100 100 100 100 100 100 100 100 100 100 100 100 100 100 100
100 100 100 100 100 100 100 100 100 100 100 100 100 100 100 100 100 100 100 100 100 100 100 100 100 100 100 100 100 100 100 100 100
100 100 100 100 100 100 100 100 100 100 100 100 100 100 100 100 100 100 100 100 100 100 100 100 100 100 100 100 100 100 81 100 100
100 100 100 100 100 100 100 100 100 100 100 100 100 100 100 100 100 100 100 100 100 100 100 100 100 100 100 100 100 97 85 98 100
44 100 100 100 100 100 100 100 100 100 100 100 100 100 100 100 100 100 100 100 100 100 100 100 100 100 100 100 100 100 100 100 98
94 100 100 100 100 100 100 100 100 100 100 100 100 100 100 100 100 100 100 100 100 100 100 100 100 100 100 100 100 100 100 100 100
99 100 100 100 100 100 100 100 100 100 100 100 100 100 100 100 100 100 100 100 100 100 100 100 100 100 100 100 100 100 100 100 100

GFSFLT1_prec_cloud_120.txt.gz
Cloud_Cover
66 96 43 5 6 4 6 14 5 6 6 10 5 5 4 3 5 10 93 63 98 100 100 100 36 19 5 5 6 12 6 5 5
100 100 84 70 38 23 4 3 5 4 6 34 5 4 5 5 5 5 8 5 5 80 72 99 100 91 7 5 5 51 19 5 5
100 100 64 81 64 29 5 1 88 0 4 5 5 25 5 6 5 12 12 68 90 52 16 81 86 100 97 100 64 38 5 12 11
93 56 86 43 93 29 5 64 20 4 4 4 5 5 89 100 100 100 100 91 7 5 43 37 100 99 99 95 100 77 13 30 5
18 27 92 56 94 47 52 100 81 31 5 4 2 5 5 6 97 100 100 100 100 99 10 13 13 7 59 89 77 100 90 57 69
85 100 85 77 38 100 77 95 47 89 93 5 9 1 4 5 52 100 100 100 100 100 100 99 25 11 18 85 58 100 100 100 93
100 100 100 100 96 90 98 42 100 93 100 49 16 99 1 6 62 100 66 99 100 100 100 100 100 100 74 37 100 88 98 100 100
100 100 100 100 100 100 99 71 95 100 100 99 87 67 3 18 8 19 5 36 100 98 100 100 100 100 100 100 13 100 91 39 96
100 100 100 100 100 100 90 91 100 100 100 100 92 100 100 75 100 57 13 36 98 94 89 100 55 100 100 100 87 25 100 79 77
100 100 100 100 100 100 100 99 96 84 99 100 100 100 97 100 100 78 100 91 86 90 51 96 100 100 96 100 100 100 12 24 92
100 100 100 100 100 100 100 100 100 100 100 100 100 98 100 100 100 100 100 100 85 100 100 100 100 83 100 100 100 100 100 96 100
100 100 100 100 100 100 100 100 100 100 100 100 100 100 100 100 100 100 100 100 100 100 100 100 100 100 100 100 100 100 100 100 100
100 100 100 100 100 100 100 100 100 100 100 100 100 100 100 100 100 100 100 100 100 100 100 100 100 100 100 100 100 100 100 100 100
100 100 100 100 100 100 100 100 100 100 100 100 100 100 100 100 100 100 100 100 100 100 100 100 100 100 100 100 100 100 100 100 100
100 100 100 100 100 100 100 99 100 100 100 100 100 100 100 100 100 100 100 100 100 100 100 100 100 100 100 100 100 100 100 100 100
100 100 100 100 100 100 100 100 98 100 100 100 100 100 100 100 100 100 100 100 100 100 100 100 100 100 100 100 100 100 100 100 100
100 92 100 100 100 100 100 100 100 100 100 100 100 100 100 100 100 100 100 100 100 100 100 100 100 100 100 100 100 100 100 98 100
70 100 75 100 100 100 100 100 100 100 100 100 100 100 100 100 100 100 100 100 100 100 100 100 100 100 100 100 100 100 100 100 100
1 96 100 100 100 100 100 100 100 100 100 100 100 100 100 100 100 100 100 100 100 100 100 100 100 100 100 100 100 100 100 100 100
5 76 47 100 100 100 100 100 100 100 100 100 100 100 100 100 100 100 100 100 100 100 100 100 100 100 100 100 100 100 100 100 100

GFSFLT1_prec_cloud_123.txt.gz
Cloud_Cover
72 24 53 26 5 5 0 0 5 5 5 5 5 5 5 33 6 5 5 12 39 42 75 5 5 14 96 23 5 5 9 5 6
100 54 99 8 5 39 5 5 0 2 5 5 5 7 6 5 5 36 5 5 5 52 49 35 6 5 5 35 94 94 97 95 89
100 98 98 69 52 6 5 5 7 5 1 5 5 45 72 48 73 9 43 47 5 5 13 24 41 21 5 5 11 31 47 79 77
100 100 100 100 100 100 51 13 5 5 5 0 3 9 2 14 100 100 100 87 6 5 5 5 5 6 35 54 6 29 52 45 5
100 100 99 90 100 99 60 35 61 5 5 0 0 3 85 100 100 100 100 100 100 98 20 7 5 5 5 5 5 4 6 15 6
100 100 100 100 100 100 100 94 57 22 11 5 5 9 55 28 46 88 100 100 100 100 100 100 85 95 47 6 6 6 26 5 83
99 14 100 98 100 100 100 98 100 100 66 68 81 25 13 10 5 90 100 100 100 100 100 100 100 100 96 8 41 92 95 79 54
73 49 45 79 100 97 80 99 100 100 96 100 100 99 88 58 92 90 89 95 48 98 100 100 100 100 100 100 95 94 26 52 37
100 100 100 99 99 100 100 100 100 100 95 96 96 100 90 100 56 100 76 31 5 39 7 53 99 36 63 99 100 100 92 41 5
100 100 100 100 100 100 100 100 100 94 92 100 100 98 88 26 97 43 92 96 95 12 83 5 5 59 67 52 30 100 100 100 100
100 100 100 100 100 100 100 98 100 99 92 83 81 89 80 84 72 100 94 49 100 100 97 94 100 83 90 99 69 95 100 100 99
100 100 100 100 100 100 100 100 99 100 100 100 99 100 96 94 100 100 100 100 100 100 100 100 100 100 100 98 59 95 100 100 99
100 100 100 100 100 100 100 100 100 99 100 100 100 100 100 100 100 100 100 100 100 100 100 100 100 100 100 100 100 100 100 100 100
100 100 100 100 100 100 100 100 100 100 100 100 100 98 100 100 100 100 100 100 100 100 100 100 100 100 100 100 100 100 100 100 100
100 100 100 100 100 100 100 100 100 100 100 100 100 100 100 100 100 99 100 100 100 100 100 100 100 100 100 100 100 100 100 100 100
100 100 100 100 100 100 100 100 100 100 100 100 100 100 100 100 100 100 100 100 100 100 100 100 100 100 100 100 100 100 100 100 100
100 97 100 100 100 100 100 100 98 100 100 100 100 100 100 100 100 100 100 100 100 100 100 100 100 100 100 100 100 100 100 100 100
99 68 33 43 100 100 100 100 100 100 100 100 100 100 100 100 100 100 100 100 100 100 100 100 100 100 100 100 100 100 100 100 100
5 5 8 41 48 87 100 100 100 100 100 100 100 100 100 100 100 100 100 100 100 100 100 100 100 100 100 100 100 100 100 100 100
5 0 0 0 11 16 1 86 100 100 100 100 100 100 100 100 100 100 100 100 100 100 100 100 100 100 100 100 100 100 100 100 100

GFSFLT1_prec_cloud_126.txt.gz
Cloud_Cover
62 10 5 5 0 0 0 0 0 5 5 21 10 7 22 57 100 57 76 85 53 2 56 64 23 1 6 8 9 29 6 38 58
62 42 4 3 0 0 0 0 1 5 2 5 0 5 21 8 5 22 69 48 98 33 7 28 6 5 4 5 5 7 6 6 12
89 91 100 8 3 4 4 5 4 1 3 0 0 0 0 5 12 5 48 75 5 7 22 27 96 21 48 31 21 15 9 7 12
100 100 99 85 33 49 32 5 5 6 5 5 5 0 3 2 40 5 94 100 71 5 5 5 5 34 89 97 95 33 19 5 4
100 100 100 99 78 5 9 3 1 6 6 5 5 5 4 74 100 100 100 100 36 18 3 7 5 5 5 5 5 10 84 7 55
100 100 100 97 64 98 19 8 0 5 5 5 5 5 1 84 100 100 100 100 100 100 100 88 81 98 99 12 5 26 52 15 7
100 100 100 96 100 99 100 31 5 5 57 54 14 5 5 5 88 45 22 100 100 100 100 100 100 33 84 100 76 8 49 62 5
100 100 100 58 55 100 100 100 87 65 57 99 98 99 35 8 68 35 18 76 59 38 100 100 100 99 11 100 76 21 96 96 96
100 100 100 100 99 100 88 100 100 96 59 100 55 100 13 20 57 85 62 100 70 61 20 5 18 24 31 78 100 100 100 100 100
100 100 100 100 100 100 100 100 100 100 97 100 100 21 81 100 86 49 92 97 18 100 27 55 85 52 35 24 18 5 14 83 100
100 100 100 100 100 100 100 100 100 100 96 68 100 99 37 88 61 28 100 100 48 100 20 96 100 100 100 85 99 82 92 97 59
100 100 100 100 100 100 100 100 100 99 96 88 94 66 87 42 75 38 98 53 100 88 93 54 96 100 100 100 100 100 92 97 81
100 100 100 100 100 100 100 100 100 100 100 100 95 100 100 98 89 100 50 100 99 54 78 81 100 100 100 100 100 100 100 100 99
100 100 100 95 100 100 100 100 100 100 100 100 100 100 87 98 83 95 85 77 97 100 92 100 100 100 100 100 100 100 100 100 100
98 96 100 100 100 100 100 100 100 100 100 100 100 100 84 100 100 100 100 100 100 100 100 100 100 100 100 100 100 100 100 100 100
100 64 100 100 98 100 100 98 100 100 100 100 100 100 100 100 100 100 100 100 100 100 100 98 100 100 100 100 100 100 100 100 100
100 96 100 100 100 100 100 99 100 100 100 100 100 100 100 100 100 100 100 100 100 95 100 100 100 100 100 100 100 100 100 100 99
98 100 95 49 78 88 92 100 88 100 100 100 100 100 100 100 100 100 100 100 100 100 100 100 100 100 100 100 100 100 100 100 100
100 76 10 5 46 87 63 93 100 95 100 100 100 100 100 100 100 100 100 99 98 99 92 86 79 100 100 100 100 100 100 100 100
14 21 5 7 9 1 57 47 100 100 100 100 100 100 100 100 100 100 100 100 100 100 78 96 78 54 78 100 100 100 100 100 100